| time (UTC) | temp F | wind direction | speed knots | gust knots | rain 1hr in | rain 24hr in | rain mn in | humidity % | barometer mb |
| 20260506162604 | 63 | 203 | 6.1 | 20.9 | 0.00 | 0.00 | 0.00 | 74 | 1009.8 |
| 20260506162505 | 63 | 200 | 7.0 | 20.9 | 0.00 | 0.00 | 0.00 | 74 | 1009.8 |
| 20260506162405 | 63 | 202 | 7.0 | 20.9 | 0.00 | 0.00 | 0.00 | 74 | 1009.8 |
| 20260506162307 | 63 | 201 | 7.0 | 20.9 | 0.00 | 0.00 | 0.00 | 74 | 1009.8 |
| 20260506162205 | 63 | 200 | 6.1 | 20.9 | 0.00 | 0.00 | 0.00 | 74 | 1009.8 |
| 20260506162105 | 64 | 203 | 6.1 | 20.9 | 0.00 | 0.00 | 0.00 | 74 | 1009.8 |
| 20260506162005 | 64 | 205 | 5.2 | 15.6 | 0.00 | 0.00 | 0.00 | 74 | 1009.9 |
| 20260506161905 | 64 | 202 | 6.1 | 13.9 | 0.00 | 0.00 | 0.00 | 74 | 1009.8 |
| 20260506161805 | 64 | 202 | 6.1 | 14.8 | 0.00 | 0.00 | 0.00 | 74 | 1009.8 |
| 20260506161705 | 64 | 203 | 5.2 | 14.8 | 0.00 | 0.00 | 0.00 | 74 | 1009.8 |
| 20260506161619 | 63 | 196 | 5.2 | 14.8 | 0.00 | 0.00 | 0.00 | 74 | 1010.0 |
| 20260506161105 | 64 | 200 | 7.0 | 17.4 | 0.00 | 0.00 | 0.00 | 74 | 1009.7 |
| 20260506161005 | 64 | 200 | 7.0 | 17.4 | 0.00 | 0.00 | 0.00 | 74 | 1009.8 |
| 20260506160905 | 64 | 200 | 7.0 | 17.4 | 0.00 | 0.00 | 0.00 | 74 | 1009.9 |
| 20260506160805 | 64 | 201 | 7.0 | 17.4 | 0.00 | 0.00 | 0.00 | 74 | 1010.0 |
| 20260506160705 | 64 | 200 | 7.0 | 17.4 | 0.00 | 0.00 | 0.00 | 74 | 1009.9 |
| 20260506160605 | 64 | 200 | 7.0 | 18.2 | 0.00 | 0.00 | 0.00 | 74 | 1009.9 |
| 20260506160504 | 64 | 200 | 7.0 | 18.2 | 0.00 | 0.00 | 0.00 | 74 | 1009.9 |
| 20260506160405 | 64 | 200 | 7.0 | 18.2 | 0.00 | 0.00 | 0.00 | 74 | 1009.8 |
| 20260506160305 | 64 | 202 | 7.0 | 18.2 | 0.00 | 0.00 | 0.00 | 74 | 1009.9 |
| 20260506160205 | 64 | 202 | 7.0 | 18.2 | 0.00 | 0.00 | 0.00 | 74 | 1009.9 |
| 20260506160112 | 63 | 148 | 4.3 | 17.4 | 0.00 | 0.00 | 0.00 | 74 | 1010.2 |
| 20260506160105 | 64 | 201 | 7.0 | 18.2 | 0.00 | 0.00 | 0.00 | 74 | 1009.9 |
| 20260506155504 | 64 | 197 | 6.1 | 17.4 | 0.00 | 0.00 | 0.00 | 75 | 1010.0 |
| 20260506155405 | 64 | 197 | 6.1 | 13.9 | 0.00 | 0.00 | 0.00 | 75 | 1010.1 |
| 20260506155306 | 64 | 196 | 6.1 | 13.9 | 0.00 | 0.00 | 0.00 | 75 | 1010.1 |
| 20260506155205 | 64 | 196 | 6.1 | 15.6 | 0.00 | 0.00 | 0.00 | 75 | 1010.1 |
| 20260506155105 | 64 | 197 | 6.1 | 15.6 | 0.00 | 0.00 | 0.00 | 75 | 1010.2 |
| 20260506155005 | 64 | 198 | 7.0 | 15.6 | 0.00 | 0.00 | 0.00 | 75 | 1010.2 |
| 20260506154905 | 64 | 199 | 7.8 | 17.4 | 0.00 | 0.00 | 0.00 | 75 | 1010.4 |
| 20260506154805 | 64 | 199 | 7.8 | 17.4 | 0.00 | 0.00 | 0.00 | 75 | 1010.2 |
| 20260506154705 | 64 | 200 | 7.8 | 18.2 | 0.00 | 0.00 | 0.00 | 75 | 1010.3 |
| 20260506154617 | 63 | 220 | 7.0 | 18.2 | 0.00 | 0.00 | 0.00 | 75 | 1010.5 |
| 20260506154604 | 64 | 201 | 7.0 | 18.2 | 0.00 | 0.00 | 0.00 | 75 | 1010.1 |
| 20260506154505 | 64 | 201 | 7.0 | 18.2 | 0.00 | 0.00 | 0.00 | 75 | 1010.3 |
| 20260506154404 | 64 | 201 | 7.0 | 18.2 | 0.00 | 0.00 | 0.00 | 75 | 1010.3 |
| 20260506154305 | 63 | 205 | 7.0 | 18.2 | 0.00 | 0.00 | 0.00 | 75 | 1010.3 |
| 20260506154205 | 63 | 206 | 6.1 | 18.2 | 0.00 | 0.00 | 0.00 | 75 | 1010.4 |
| 20260506154104 | 63 | 204 | 7.0 | 18.2 | 0.00 | 0.00 | 0.00 | 75 | 1010.4 |
| 20260506154005 | 63 | 201 | 6.1 | 18.2 | 0.00 | 0.00 | 0.00 | 75 | 1010.4 |
| 20260506153905 | 63 | 201 | 6.1 | 18.2 | 0.00 | 0.00 | 0.00 | 75 | 1010.5 |
| 20260506153804 | 63 | 202 | 6.1 | 18.2 | 0.00 | 0.00 | 0.00 | 75 | 1010.4 |
| 20260506153704 | 63 | 200 | 6.1 | 15.6 | 0.00 | 0.00 | 0.00 | 75 | 1010.5 |
| 20260506153605 | 63 | 199 | 6.1 | 15.6 | 0.00 | 0.00 | 0.00 | 75 | 1010.4 |
| 20260506153505 | 63 | 200 | 6.1 | 17.4 | 0.00 | 0.00 | 0.00 | 75 | 1010.4 |
| 20260506153405 | 63 | 201 | 6.1 | 17.4 | 0.00 | 0.00 | 0.00 | 75 | 1010.4 |
| 20260506153305 | 63 | 198 | 6.1 | 17.4 | 0.00 | 0.00 | 0.00 | 75 | 1010.3 |
| 20260506153205 | 63 | 196 | 6.1 | 17.4 | 0.00 | 0.00 | 0.00 | 75 | 1010.4 |
| 20260506153137 | 63 | 182 | 6.1 | 17.4 | 0.00 | 0.00 | 0.00 | 75 | 1010.6 |
| 20260506153105 | 63 | 196 | 6.1 | 17.4 | 0.00 | 0.00 | 0.00 | 75 | 1010.4 |
| 20260506153005 | 63 | 199 | 6.1 | 17.4 | 0.00 | 0.00 | 0.00 | 76 | 1010.4 |
| 20260506152905 | 63 | 197 | 5.2 | 17.4 | 0.00 | 0.00 | 0.00 | 76 | 1010.4 |
| 20260506152805 | 63 | 197 | 5.2 | 17.4 | 0.00 | 0.00 | 0.00 | 76 | 1010.3 |
| 20260506152705 | 63 | 199 | 5.2 | 17.4 | 0.00 | 0.00 | 0.00 | 76 | 1010.3 |
| 20260506152605 | 63 | 200 | 5.2 | 17.4 | 0.00 | 0.00 | 0.00 | 76 | 1010.2 |
| 20260506152505 | 63 | 201 | 5.2 | 15.6 | 0.00 | 0.00 | 0.00 | 76 | 1010.3 |
| 20260506152405 | 63 | 201 | 5.2 | 15.6 | 0.00 | 0.00 | 0.00 | 76 | 1010.2 |
| 20260506152306 | 63 | 204 | 5.2 | 13.9 | 0.00 | 0.00 | 0.00 | 76 | 1010.2 |
| 20260506152205 | 63 | 205 | 6.1 | 14.8 | 0.00 | 0.00 | 0.00 | 76 | 1010.2 |
| 20260506152105 | 63 | 207 | 6.1 | 14.8 | 0.00 | 0.00 | 0.00 | 76 | 1010.3 |
| 20260506152005 | 63 | 206 | 6.1 | 16.5 | 0.00 | 0.00 | 0.00 | 76 | 1010.3 |
| 20260506151905 | 63 | 210 | 7.0 | 16.5 | 0.00 | 0.00 | 0.00 | 76 | 1010.2 |
| 20260506151805 | 63 | 210 | 7.0 | 16.5 | 0.00 | 0.00 | 0.00 | 76 | 1010.1 |
| 20260506151705 | 63 | 208 | 7.8 | 16.5 | 0.00 | 0.00 | 0.00 | 75 | 1010.2 |
| 20260506151614 | 62 | 212 | 5.2 | 16.5 | 0.00 | 0.00 | 0.00 | 76 | 1010.5 |
| 20260506151605 | 63 | 206 | 7.8 | 20.0 | 0.00 | 0.00 | 0.00 | 76 | 1010.3 |
| 20260506151505 | 63 | 207 | 7.8 | 20.0 | 0.00 | 0.00 | 0.00 | 75 | 1010.2 |
| 20260506151405 | 63 | 205 | 8.7 | 20.0 | 0.00 | 0.00 | 0.00 | 75 | 1010.3 |
| 20260506151304 | 63 | 203 | 8.7 | 20.0 | 0.00 | 0.00 | 0.00 | 75 | 1010.2 |
| 20260506151205 | 63 | 204 | 8.7 | 20.0 | 0.00 | 0.00 | 0.00 | 75 | 1010.3 |
| 20260506151105 | 63 | 203 | 8.7 | 20.9 | 0.00 | 0.00 | 0.00 | 75 | 1010.2 |
| 20260506151005 | 63 | 204 | 8.7 | 20.9 | 0.00 | 0.00 | 0.00 | 75 | 1010.2 |
| 20260506150905 | 63 | 202 | 9.6 | 20.9 | 0.00 | 0.00 | 0.00 | 75 | 1010.1 |
| 20260506150804 | 63 | 199 | 8.7 | 22.6 | 0.00 | 0.00 | 0.00 | 75 | 1010.2 |
| 20260506150704 | 63 | 197 | 7.8 | 22.6 | 0.00 | 0.00 | 0.00 | 75 | 1010.1 |
| 20260506150605 | 63 | 196 | 7.8 | 22.6 | 0.00 | 0.00 | 0.00 | 75 | 1010.1 |
| 20260506150505 | 63 | 195 | 7.8 | 22.6 | 0.00 | 0.00 | 0.00 | 75 | 1010.1 |
| 20260506150405 | 63 | 197 | 7.8 | 22.6 | 0.00 | 0.00 | 0.00 | 75 | 1010.2 |
| 20260506150305 | 63 | 200 | 7.8 | 22.6 | 0.00 | 0.00 | 0.00 | 75 | 1010.1 |
| 20260506150205 | 63 | 202 | 7.8 | 22.6 | 0.00 | 0.00 | 0.00 | 75 | 1010.1 |
| 20260506150106 | 63 | 165 | 8.7 | 23.5 | 0.00 | 0.00 | 0.00 | 75 | 1010.3 |
| 20260506150104 | 63 | 201 | 7.8 | 22.6 | 0.00 | 0.00 | 0.00 | 75 | 1010.1 |
| 20260506150005 | 63 | 200 | 7.8 | 22.6 | 0.00 | 0.00 | 0.00 | 75 | 1010.2 |
| 20260506145905 | 63 | 200 | 8.7 | 26.1 | 0.00 | 0.00 | 0.00 | 75 | 1010.4 |
| 20260506145804 | 63 | 201 | 9.6 | 26.1 | 0.00 | 0.00 | 0.00 | 75 | 1010.4 |
| 20260506145705 | 63 | 203 | 10.4 | 26.1 | 0.00 | 0.00 | 0.00 | 75 | 1010.4 |
| 20260506145604 | 63 | 203 | 10.4 | 26.1 | 0.00 | 0.00 | 0.00 | 75 | 1010.4 |
| 20260506145504 | 63 | 202 | 10.4 | 26.1 | 0.00 | 0.00 | 0.00 | 75 | 1010.5 |
| 20260506145405 | 63 | 201 | 10.4 | 26.1 | 0.00 | 0.00 | 0.00 | 74 | 1010.4 |
| 20260506145306 | 63 | 199 | 10.4 | 26.1 | 0.00 | 0.00 | 0.00 | 75 | 1010.3 |
| 20260506145205 | 63 | 197 | 10.4 | 26.1 | 0.00 | 0.00 | 0.00 | 75 | 1010.4 |
| 20260506145105 | 63 | 198 | 10.4 | 26.1 | 0.00 | 0.00 | 0.00 | 75 | 1010.2 |
| 20260506145005 | 63 | 198 | 9.6 | 26.1 | 0.00 | 0.00 | 0.00 | 74 | 1010.3 |
| 20260506144905 | 64 | 199 | 8.7 | 24.3 | 0.00 | 0.00 | 0.00 | 75 | 1010.2 |
| 20260506144805 | 64 | 199 | 8.7 | 24.3 | 0.00 | 0.00 | 0.00 | 75 | 1010.3 |
| 20260506144705 | 64 | 199 | 7.8 | 24.3 | 0.00 | 0.00 | 0.00 | 75 | 1010.2 |
| 20260506144614 | 63 | 154 | 8.7 | 21.7 | 0.00 | 0.00 | 0.00 | 75 | 1010.5 |
| 20260506144605 | 64 | 199 | 7.8 | 21.7 | 0.00 | 0.00 | 0.00 | 75 | 1010.3 |
| 20260506144504 | 64 | 201 | 7.8 | 21.7 | 0.00 | 0.00 | 0.00 | 75 | 1010.3 |
| 20260506144405 | 64 | 201 | 7.8 | 21.7 | 0.00 | 0.00 | 0.00 | 75 | 1010.1 |
| 20260506144305 | 64 | 205 | 7.8 | 17.4 | 0.00 | 0.00 | 0.00 | 75 | 1010.2 |
| 20260506144205 | 63 | 205 | 7.8 | 17.4 | 0.00 | 0.00 | 0.00 | 75 | 1010.2 |
| 20260506144105 | 63 | 206 | 7.8 | 20.9 | 0.00 | 0.00 | 0.00 | 75 | 1010.1 |
| 20260506144004 | 63 | 208 | 8.7 | 20.9 | 0.00 | 0.00 | 0.00 | 75 | 1010.2 |
| 20260506143905 | 63 | 209 | 8.7 | 20.9 | 0.00 | 0.00 | 0.00 | 75 | 1010.2 |
| 20260506143805 | 63 | 209 | 8.7 | 20.9 | 0.00 | 0.00 | 0.00 | 75 | 1010.2 |
| 20260506143705 | 63 | 209 | 8.7 | 20.9 | 0.00 | 0.00 | 0.00 | 75 | 1010.2 |
| 20260506143604 | 63 | 211 | 8.7 | 20.9 | 0.00 | 0.00 | 0.00 | 76 | 1010.3 |
| 20260506143505 | 63 | 210 | 8.7 | 20.9 | 0.00 | 0.00 | 0.00 | 76 | 1010.3 |
| 20260506143405 | 63 | 210 | 8.7 | 20.9 | 0.00 | 0.00 | 0.00 | 76 | 1010.2 |
| 20260506143306 | 63 | 209 | 8.7 | 20.9 | 0.00 | 0.00 | 0.00 | 76 | 1010.2 |
| 20260506143205 | 63 | 209 | 8.7 | 20.9 | 0.00 | 0.00 | 0.00 | 76 | 1010.4 |
| 20260506143105 | 63 | 217 | 9.6 | 20.0 | 0.00 | 0.00 | 0.00 | 76 | 1010.6 |
| 20260506143005 | 63 | 205 | 8.7 | 21.7 | 0.00 | 0.00 | 0.00 | 76 | 1010.2 |
| 20260506142905 | 63 | 205 | 8.7 | 21.7 | 0.00 | 0.00 | 0.00 | 76 | 1010.3 |
| 20260506142805 | 63 | 205 | 8.7 | 21.7 | 0.00 | 0.00 | 0.00 | 76 | 1010.3 |
| 20260506142705 | 63 | 204 | 8.7 | 21.7 | 0.00 | 0.00 | 0.00 | 76 | 1010.2 |
| 20260506142605 | 63 | 201 | 8.7 | 21.7 | 0.00 | 0.00 | 0.00 | 76 | 1010.3 |
| 20260506142504 | 63 | 201 | 8.7 | 21.7 | 0.00 | 0.00 | 0.00 | 76 | 1010.3 |
| 20260506142405 | 63 | 201 | 8.7 | 21.7 | 0.00 | 0.00 | 0.00 | 76 | 1010.3 |
| 20260506142306 | 63 | 204 | 8.7 | 21.7 | 0.00 | 0.00 | 0.00 | 76 | 1010.4 |
| 20260506141612 | 62 | 198 | 7.8 | 22.6 | 0.00 | 0.00 | 0.00 | 76 | 1010.8 |
| 20260506141604 | 63 | 210 | 8.7 | 23.5 | 0.00 | 0.00 | 0.00 | 76 | 1010.6 |
| 20260506141504 | 63 | 210 | 9.6 | 23.5 | 0.00 | 0.00 | 0.00 | 76 | 1010.7 |
| 20260506141404 | 63 | 209 | 9.6 | 23.5 | 0.00 | 0.00 | 0.00 | 76 | 1010.6 |
| 20260506141305 | 63 | 206 | 8.7 | 23.5 | 0.00 | 0.00 | 0.00 | 76 | 1010.7 |
| 20260506141204 | 63 | 207 | 8.7 | 23.5 | 0.00 | 0.00 | 0.00 | 76 | 1010.7 |
| 20260506141105 | 62 | 208 | 8.7 | 23.5 | 0.00 | 0.00 | 0.00 | 76 | 1010.7 |
| 20260506141005 | 62 | 207 | 8.7 | 20.0 | 0.00 | 0.00 | 0.00 | 76 | 1010.6 |
| 20260506140905 | 62 | 206 | 8.7 | 20.0 | 0.00 | 0.00 | 0.00 | 76 | 1010.6 |
| 20260506140805 | 62 | 208 | 8.7 | 20.0 | 0.00 | 0.00 | 0.00 | 76 | 1010.6 |
| 20260506140705 | 62 | 208 | 8.7 | 20.0 | 0.00 | 0.00 | 0.00 | 76 | 1010.7 |
| 20260506140604 | 62 | 210 | 8.7 | 20.0 | 0.00 | 0.00 | 0.00 | 76 | 1010.6 |
| 20260506140505 | 62 | 210 | 8.7 | 20.0 | 0.00 | 0.00 | 0.00 | 76 | 1010.7 |
| 20260506140405 | 62 | 212 | 8.7 | 20.9 | 0.00 | 0.00 | 0.00 | 76 | 1010.7 |
| 20260506140305 | 62 | 214 | 8.7 | 20.9 | 0.00 | 0.00 | 0.00 | 76 | 1010.7 |
| 20260506140204 | 63 | 214 | 8.7 | 20.9 | 0.00 | 0.00 | 0.00 | 76 | 1010.7 |
| 20260506140105 | 63 | 213 | 9.6 | 20.9 | 0.00 | 0.00 | 0.00 | 76 | 1010.7 |
| 20260506140010 | 62 | 116 | 9.6 | 20.0 | 0.00 | 0.00 | 0.00 | 76 | 1010.8 |
| 20260506140005 | 63 | 212 | 9.6 | 23.5 | 0.00 | 0.00 | 0.00 | 76 | 1010.6 |
| 20260506135905 | 63 | 214 | 9.6 | 29.5 | 0.00 | 0.00 | 0.00 | 76 | 1010.6 |
| 20260506135805 | 63 | 214 | 9.6 | 29.5 | 0.00 | 0.00 | 0.00 | 76 | 1010.5 |
| 20260506135704 | 63 | 216 | 9.6 | 29.5 | 0.00 | 0.00 | 0.00 | 76 | 1010.5 |
| 20260506135605 | 63 | 215 | 9.6 | 29.5 | 0.00 | 0.00 | 0.00 | 76 | 1010.4 |
| 20260506135505 | 63 | 214 | 9.6 | 29.5 | 0.00 | 0.00 | 0.00 | 76 | 1010.7 |
| 20260506135404 | 63 | 214 | 9.6 | 29.5 | 0.00 | 0.00 | 0.00 | 76 | 1010.6 |
| 20260506135306 | 63 | 213 | 9.6 | 29.5 | 0.00 | 0.00 | 0.00 | 76 | 1010.5 |
| 20260506135204 | 63 | 212 | 9.6 | 29.5 | 0.00 | 0.00 | 0.00 | 75 | 1010.6 |
| 20260506135105 | 63 | 212 | 8.7 | 29.5 | 0.00 | 0.00 | 0.00 | 75 | 1010.5 |
| 20260506135005 | 63 | 212 | 8.7 | 29.5 | 0.00 | 0.00 | 0.00 | 75 | 1010.6 |
| 20260506134905 | 63 | 210 | 8.7 | 22.6 | 0.00 | 0.00 | 0.00 | 76 | 1010.5 |
| 20260506134804 | 63 | 209 | 8.7 | 24.3 | 0.00 | 0.00 | 0.00 | 76 | 1010.4 |
| 20260506134705 | 63 | 207 | 7.8 | 24.3 | 0.00 | 0.00 | 0.00 | 75 | 1010.5 |
| 20260506134610 | 62 | 244 | 8.7 | 23.5 | 0.00 | 0.00 | 0.00 | 76 | 1010.7 |
| 20260506134605 | 63 | 204 | 8.7 | 24.3 | 0.00 | 0.00 | 0.00 | 76 | 1010.4 |
| 20260506134505 | 63 | 204 | 7.8 | 24.3 | 0.00 | 0.00 | 0.00 | 76 | 1010.5 |
| 20260506134405 | 63 | 204 | 7.8 | 24.3 | 0.00 | 0.00 | 0.00 | 76 | 1010.5 |
| 20260506134305 | 63 | 205 | 7.8 | 24.3 | 0.00 | 0.00 | 0.00 | 76 | 1010.4 |
| 20260506134205 | 63 | 207 | 7.8 | 24.3 | 0.00 | 0.00 | 0.00 | 76 | 1010.5 |
| 20260506134105 | 63 | 206 | 7.8 | 24.3 | 0.00 | 0.00 | 0.00 | 76 | 1010.4 |
| 20260506134005 | 63 | 205 | 7.8 | 24.3 | 0.00 | 0.00 | 0.00 | 76 | 1010.5 |
| 20260506133905 | 63 | 204 | 7.8 | 24.3 | 0.00 | 0.00 | 0.00 | 76 | 1010.4 |
| 20260506133805 | 63 | 201 | 7.8 | 20.0 | 0.00 | 0.00 | 0.00 | 76 | 1010.4 |
| 20260506133705 | 63 | 199 | 7.8 | 20.0 | 0.00 | 0.00 | 0.00 | 76 | 1010.4 |
| 20260506133605 | 63 | 204 | 7.8 | 20.0 | 0.00 | 0.00 | 0.00 | 76 | 1010.4 |
| 20260506133505 | 63 | 204 | 7.0 | 20.0 | 0.00 | 0.00 | 0.00 | 76 | 1010.4 |
| 20260506133405 | 63 | 204 | 7.0 | 20.0 | 0.00 | 0.00 | 0.00 | 76 | 1010.4 |
| 20260506133305 | 63 | 202 | 7.0 | 20.0 | 0.00 | 0.00 | 0.00 | 76 | 1010.4 |
| 20260506133205 | 63 | 200 | 7.0 | 20.0 | 0.00 | 0.00 | 0.00 | 76 | 1010.4 |
| 20260506133119 | 62 | 190 | 7.0 | 19.1 | 0.00 | 0.00 | 0.00 | 76 | 1010.6 |
| 20260506133105 | 63 | 203 | 7.0 | 16.5 | 0.00 | 0.00 | 0.00 | 76 | 1010.3 |
| 20260506133005 | 63 | 204 | 7.8 | 16.5 | 0.00 | 0.00 | 0.00 | 76 | 1010.3 |
| 20260506132905 | 63 | 205 | 7.8 | 16.5 | 0.00 | 0.00 | 0.00 | 76 | 1010.2 |
| 20260506132804 | 63 | 208 | 7.0 | 18.2 | 0.00 | 0.00 | 0.00 | 76 | 1010.3 |
| 20260506132705 | 63 | 210 | 7.0 | 18.2 | 0.00 | 0.00 | 0.00 | 76 | 1010.4 |
| 20260506132605 | 63 | 207 | 7.0 | 18.2 | 0.00 | 0.00 | 0.00 | 76 | 1010.3 |
| 20260506132505 | 63 | 209 | 7.8 | 18.2 | 0.00 | 0.00 | 0.00 | 76 | 1010.4 |
| 20260506132405 | 63 | 209 | 7.8 | 18.2 | 0.00 | 0.00 | 0.00 | 76 | 1010.3 |
| 20260506132307 | 63 | 212 | 7.8 | 18.2 | 0.00 | 0.00 | 0.00 | 76 | 1010.4 |
| 20260506132204 | 63 | 211 | 7.8 | 23.5 | 0.00 | 0.00 | 0.00 | 76 | 1010.4 |
| 20260506132105 | 63 | 208 | 7.8 | 23.5 | 0.00 | 0.00 | 0.00 | 76 | 1010.5 |
| 20260506132005 | 63 | 207 | 7.8 | 23.5 | 0.00 | 0.00 | 0.00 | 76 | 1010.4 |
| 20260506131904 | 63 | 207 | 8.7 | 23.5 | 0.00 | 0.00 | 0.00 | 76 | 1010.4 |
| 20260506131610 | 62 | 188 | 7.0 | 23.5 | 0.00 | 0.00 | 0.00 | 76 | 1010.6 |
| 20260506131205 | 63 | 203 | 8.7 | 22.6 | 0.00 | 0.00 | 0.00 | 76 | 1010.2 |
| 20260506131105 | 63 | 202 | 7.8 | 19.1 | 0.00 | 0.00 | 0.00 | 76 | 1010.3 |
| 20260506131005 | 63 | 204 | 8.7 | 19.1 | 0.00 | 0.00 | 0.00 | 76 | 1010.1 |
| 20260506130905 | 63 | 205 | 7.8 | 19.1 | 0.00 | 0.00 | 0.00 | 77 | 1010.2 |
| 20260506130805 | 62 | 202 | 8.7 | 19.1 | 0.00 | 0.00 | 0.00 | 77 | 1010.3 |
| 20260506130705 | 62 | 200 | 8.7 | 22.6 | 0.00 | 0.00 | 0.00 | 77 | 1010.3 |
| 20260506130605 | 62 | 199 | 8.7 | 22.6 | 0.00 | 0.00 | 0.00 | 77 | 1010.3 |
| 20260506130505 | 62 | 201 | 9.6 | 22.6 | 0.00 | 0.00 | 0.00 | 77 | 1010.3 |
| 20260506130405 | 62 | 200 | 9.6 | 22.6 | 0.00 | 0.00 | 0.00 | 77 | 1010.3 |
| 20260506130305 | 62 | 200 | 9.6 | 25.2 | 0.00 | 0.00 | 0.00 | 77 | 1010.4 |
| 20260506130205 | 62 | 201 | 9.6 | 25.2 | 0.00 | 0.00 | 0.00 | 77 | 1010.4 |
| 20260506130121 | 62 | 231 | 8.7 | 25.2 | 0.00 | 0.00 | 0.00 | 77 | 1010.7 |
| 20260506130105 | 62 | 203 | 9.6 | 25.2 | 0.00 | 0.00 | 0.00 | 77 | 1010.6 |
| 20260506130005 | 62 | 203 | 9.6 | 25.2 | 0.00 | 0.00 | 0.00 | 77 | 1010.6 |
| 20260506125904 | 62 | 202 | 9.6 | 25.2 | 0.00 | 0.00 | 0.00 | 77 | 1010.6 |
| 20260506125805 | 62 | 204 | 9.6 | 25.2 | 0.00 | 0.00 | 0.00 | 77 | 1010.7 |
| 20260506125705 | 62 | 207 | 9.6 | 25.2 | 0.00 | 0.00 | 0.00 | 77 | 1010.6 |
| 20260506125604 | 62 | 207 | 9.6 | 25.2 | 0.00 | 0.00 | 0.00 | 77 | 1010.5 |
| 20260506125506 | 62 | 206 | 9.6 | 25.2 | 0.00 | 0.00 | 0.00 | 77 | 1010.6 |
| 20260506125405 | 62 | 206 | 9.6 | 25.2 | 0.00 | 0.00 | 0.00 | 77 | 1010.6 |
| 20260506125306 | 62 | 207 | 9.6 | 22.6 | 0.00 | 0.00 | 0.00 | 77 | 1010.6 |
| 20260506125205 | 62 | 207 | 9.6 | 22.6 | 0.00 | 0.00 | 0.00 | 77 | 1010.7 |
| 20260506125105 | 62 | 206 | 9.6 | 22.6 | 0.00 | 0.00 | 0.00 | 77 | 1010.8 |
| 20260506125005 | 62 | 206 | 8.7 | 22.6 | 0.00 | 0.00 | 0.00 | 77 | 1010.8 |
| 20260506124905 | 62 | 206 | 8.7 | 22.6 | 0.00 | 0.00 | 0.00 | 77 | 1010.7 |
| 20260506124804 | 62 | 209 | 8.7 | 22.6 | 0.00 | 0.00 | 0.00 | 78 | 1010.7 |
| 20260506124705 | 62 | 206 | 7.8 | 21.7 | 0.00 | 0.00 | 0.00 | 78 | 1010.7 |
| 20260506124612 | 62 | 253 | 6.1 | 20.9 | 0.00 | 0.00 | 0.00 | 78 | 1011.0 |
| 20260506124605 | 62 | 207 | 7.8 | 21.7 | 0.00 | 0.00 | 0.00 | 78 | 1010.7 |
| 20260506124504 | 62 | 209 | 8.7 | 21.7 | 0.00 | 0.00 | 0.00 | 78 | 1010.7 |
| 20260506124404 | 62 | 213 | 7.8 | 21.7 | 0.00 | 0.00 | 0.00 | 78 | 1010.8 |
| 20260506124305 | 62 | 214 | 7.8 | 21.7 | 0.00 | 0.00 | 0.00 | 78 | 1010.6 |
| 20260506124204 | 62 | 216 | 7.8 | 21.7 | 0.00 | 0.00 | 0.00 | 78 | 1010.8 |
| 20260506124105 | 62 | 216 | 8.7 | 21.7 | 0.00 | 0.00 | 0.00 | 79 | 1010.7 |
| 20260506124005 | 62 | 216 | 8.7 | 23.5 | 0.00 | 0.00 | 0.00 | 78 | 1011.0 |
| 20260506123905 | 62 | 217 | 8.7 | 23.5 | 0.00 | 0.00 | 0.00 | 78 | 1010.9 |
| 20260506123805 | 62 | 213 | 7.8 | 23.5 | 0.00 | 0.00 | 0.00 | 78 | 1010.9 |
| 20260506123705 | 62 | 213 | 8.7 | 23.5 | 0.00 | 0.00 | 0.00 | 78 | 1010.9 |
| 20260506123605 | 62 | 215 | 8.7 | 23.5 | 0.00 | 0.00 | 0.00 | 78 | 1011.0 |
| 20260506123505 | 61 | 215 | 8.7 | 23.5 | 0.00 | 0.00 | 0.00 | 78 | 1010.9 |
| 20260506123008 | 61 | 194 | 8.7 | 23.5 | 0.00 | 0.00 | 0.00 | 79 | 1011.2 |
| 20260506122404 | 61 | 208 | 8.7 | 23.5 | 0.00 | 0.00 | 0.00 | 79 | 1010.7 |
| 20260506122306 | 61 | 208 | 8.7 | 20.9 | 0.00 | 0.00 | 0.00 | 79 | 1010.8 |
| 20260506122204 | 61 | 209 | 7.8 | 20.9 | 0.00 | 0.00 | 0.00 | 79 | 1010.8 |
| 20260506122105 | 61 | 210 | 7.8 | 20.9 | 0.00 | 0.00 | 0.00 | 79 | 1010.8 |
| 20260506122004 | 61 | 213 | 7.8 | 20.9 | 0.00 | 0.00 | 0.00 | 80 | 1010.7 |
| 20260506121905 | 61 | 212 | 7.8 | 20.9 | 0.00 | 0.00 | 0.00 | 80 | 1010.8 |
| 20260506121805 | 61 | 215 | 7.8 | 20.9 | 0.00 | 0.00 | 0.00 | 80 | 1010.9 |
| 20260506121705 | 61 | 212 | 7.8 | 20.9 | 0.00 | 0.00 | 0.00 | 80 | 1010.8 |
| 20260506121615 | 60 | 225 | 8.7 | 21.7 | 0.00 | 0.00 | 0.00 | 80 | 1011.0 |
| 20260506121604 | 61 | 214 | 7.8 | 20.9 | 0.00 | 0.00 | 0.00 | 80 | 1010.8 |
| 20260506121505 | 61 | 214 | 7.0 | 20.9 | 0.00 | 0.00 | 0.00 | 80 | 1010.9 |
| 20260506121405 | 61 | 216 | 7.8 | 20.9 | 0.00 | 0.00 | 0.00 | 80 | 1010.9 |
| 20260506121304 | 61 | 216 | 7.8 | 20.9 | 0.00 | 0.00 | 0.00 | 80 | 1010.9 |
| 20260506121204 | 60 | 214 | 7.8 | 20.9 | 0.00 | 0.00 | 0.00 | 80 | 1010.8 |
| 20260506121105 | 60 | 213 | 7.8 | 20.9 | 0.00 | 0.00 | 0.00 | 80 | 1010.8 |
| 20260506121004 | 60 | 214 | 7.8 | 20.9 | 0.00 | 0.00 | 0.00 | 80 | 1010.8 |
| 20260506120905 | 60 | 211 | 7.8 | 20.9 | 0.00 | 0.00 | 0.00 | 80 | 1010.9 |
| 20260506120304 | 60 | 208 | 8.7 | 18.2 | 0.00 | 0.00 | 0.00 | 81 | 1010.7 |
| 20260506120205 | 60 | 209 | 7.8 | 18.2 | 0.00 | 0.00 | 0.00 | 81 | 1010.8 |
| 20260506120105 | 60 | 210 | 8.7 | 18.2 | 0.00 | 0.00 | 0.00 | 81 | 1010.7 |
| 20260506120010 | 60 | 223 | 8.7 | 18.2 | 0.00 | 0.00 | 0.00 | 81 | 1010.9 |
| 20260506120005 | 60 | 209 | 7.8 | 18.2 | 0.00 | 0.00 | 0.00 | 81 | 1010.7 |
| 20260506115905 | 60 | 211 | 7.8 | 18.2 | 0.00 | 0.00 | 0.00 | 81 | 1010.6 |
| 20260506115307 | 60 | 213 | 7.0 | 18.2 | 0.00 | 0.00 | 0.00 | 81 | 1010.7 |
| 20260506115205 | 60 | 214 | 7.0 | 18.2 | 0.00 | 0.00 | 0.00 | 81 | 1010.5 |
| 20260506115105 | 60 | 212 | 7.0 | 18.2 | 0.00 | 0.00 | 0.00 | 81 | 1010.6 |
| 20260506115005 | 60 | 212 | 7.0 | 18.2 | 0.00 | 0.00 | 0.00 | 81 | 1010.6 |
| 20260506114905 | 60 | 210 | 7.0 | 18.2 | 0.00 | 0.00 | 0.00 | 81 | 1010.6 |
| 20260506114805 | 60 | 212 | 7.8 | 20.9 | 0.00 | 0.00 | 0.00 | 82 | 1010.6 |
| 20260506114705 | 60 | 213 | 7.8 | 20.9 | 0.00 | 0.00 | 0.00 | 82 | 1010.7 |
| 20260506114608 | 59 | 246 | 4.3 | 21.7 | 0.00 | 0.00 | 0.00 | 82 | 1010.9 |
| 20260506114604 | 60 | 211 | 7.8 | 20.9 | 0.00 | 0.00 | 0.00 | 82 | 1010.7 |
| 20260506114504 | 59 | 213 | 8.7 | 20.9 | 0.00 | 0.00 | 0.00 | 82 | 1010.7 |
| 20260506114405 | 59 | 211 | 8.7 | 20.9 | 0.00 | 0.00 | 0.00 | 82 | 1010.8 |
| 20260506114305 | 59 | 210 | 8.7 | 20.9 | 0.00 | 0.00 | 0.00 | 82 | 1010.7 |
| 20260506114205 | 59 | 207 | 8.7 | 20.9 | 0.00 | 0.00 | 0.00 | 82 | 1010.6 |
| 20260506114105 | 59 | 207 | 8.7 | 20.9 | 0.00 | 0.00 | 0.00 | 82 | 1010.7 |
| 20260506114005 | 59 | 205 | 8.7 | 20.9 | 0.00 | 0.00 | 0.00 | 82 | 1010.8 |
| 20260506113905 | 59 | 205 | 8.7 | 20.9 | 0.00 | 0.00 | 0.00 | 82 | 1010.7 |
| 20260506113805 | 59 | 201 | 7.8 | 20.0 | 0.00 | 0.00 | 0.00 | 82 | 1010.8 |
| 20260506113705 | 59 | 201 | 7.8 | 20.0 | 0.00 | 0.00 | 0.00 | 82 | 1010.6 |
| 20260506113605 | 59 | 201 | 7.8 | 20.0 | 0.00 | 0.00 | 0.00 | 82 | 1010.7 |
| 20260506113505 | 59 | 198 | 7.8 | 20.0 | 0.00 | 0.00 | 0.00 | 82 | 1010.7 |
| 20260506113404 | 59 | 198 | 7.8 | 20.0 | 0.00 | 0.00 | 0.00 | 82 | 1010.7 |
| 20260506113305 | 59 | 196 | 7.8 | 22.6 | 0.00 | 0.00 | 0.00 | 82 | 1010.8 |
| 20260506113205 | 59 | 196 | 7.8 | 22.6 | 0.00 | 0.00 | 0.00 | 82 | 1010.8 |
| 20260506113120 | 58 | 176 | 7.0 | 22.6 | 0.00 | 0.00 | 0.00 | 82 | 1011.0 |
| 20260506113105 | 59 | 197 | 7.8 | 22.6 | 0.00 | 0.00 | 0.00 | 82 | 1010.8 |
| 20260506113005 | 59 | 197 | 7.8 | 22.6 | 0.00 | 0.00 | 0.00 | 82 | 1010.7 |
| 20260506112904 | 59 | 201 | 7.8 | 22.6 | 0.00 | 0.00 | 0.00 | 82 | 1010.7 |
| 20260506112805 | 59 | 203 | 7.8 | 22.6 | 0.00 | 0.00 | 0.00 | 82 | 1010.8 |
| 20260506112705 | 59 | 203 | 7.8 | 22.6 | 0.00 | 0.00 | 0.00 | 82 | 1010.7 |
| 20260506112605 | 59 | 202 | 8.7 | 22.6 | 0.00 | 0.00 | 0.00 | 82 | 1010.7 |
| 20260506112505 | 59 | 202 | 8.7 | 22.6 | 0.00 | 0.00 | 0.00 | 82 | 1010.8 |
| 20260506112404 | 59 | 202 | 8.7 | 22.6 | 0.00 | 0.00 | 0.00 | 82 | 1010.8 |
| 20260506112306 | 59 | 203 | 8.7 | 19.1 | 0.00 | 0.00 | 0.00 | 82 | 1010.8 |
| 20260506112205 | 59 | 206 | 8.7 | 19.1 | 0.00 | 0.00 | 0.00 | 82 | 1010.7 |
| 20260506112104 | 59 | 207 | 8.7 | 19.1 | 0.00 | 0.00 | 0.00 | 82 | 1010.9 |
| 20260506112005 | 59 | 206 | 7.8 | 19.1 | 0.00 | 0.00 | 0.00 | 82 | 1010.7 |
| 20260506111904 | 58 | 204 | 7.8 | 19.1 | 0.00 | 0.00 | 0.00 | 82 | 1010.7 |
| 20260506111805 | 58 | 203 | 7.8 | 19.1 | 0.00 | 0.00 | 0.00 | 82 | 1010.8 |
| 20260506111705 | 58 | 202 | 7.8 | 19.1 | 0.00 | 0.00 | 0.00 | 82 | 1010.6 |
| 20260506111607 | 58 | 196 | 10.4 | 19.1 | 0.00 | 0.00 | 0.00 | 82 | 1010.9 |
| 20260506111604 | 58 | 202 | 7.0 | 19.1 | 0.00 | 0.00 | 0.00 | 82 | 1010.7 |
| 20260506111505 | 58 | 203 | 7.0 | 19.1 | 0.00 | 0.00 | 0.00 | 83 | 1010.8 |
| 20260506111405 | 58 | 202 | 6.1 | 18.2 | 0.00 | 0.00 | 0.00 | 83 | 1010.7 |
| 20260506111304 | 58 | 202 | 6.1 | 16.5 | 0.00 | 0.00 | 0.00 | 83 | 1010.7 |
| 20260506111205 | 58 | 200 | 5.2 | 14.8 | 0.00 | 0.00 | 0.00 | 83 | 1010.7 |
| 20260506111105 | 58 | 199 | 5.2 | 14.8 | 0.00 | 0.00 | 0.00 | 83 | 1010.7 |
| 20260506111004 | 58 | 199 | 5.2 | 14.8 | 0.00 | 0.00 | 0.00 | 83 | 1010.8 |
| 20260506110905 | 58 | 196 | 5.2 | 14.8 | 0.00 | 0.00 | 0.00 | 83 | 1010.6 |
| 20260506110805 | 58 | 196 | 5.2 | 14.8 | 0.00 | 0.00 | 0.00 | 83 | 1010.7 |
| 20260506110704 | 58 | 197 | 6.1 | 14.8 | 0.00 | 0.00 | 0.00 | 83 | 1010.8 |
| 20260506110605 | 58 | 196 | 6.1 | 14.8 | 0.00 | 0.00 | 0.00 | 83 | 1010.8 |
| 20260506110505 | 58 | 196 | 6.1 | 14.8 | 0.00 | 0.00 | 0.00 | 83 | 1010.7 |
| 20260506110404 | 58 | 196 | 6.1 | 14.8 | 0.00 | 0.00 | 0.00 | 83 | 1010.7 |
| 20260506110305 | 58 | 196 | 7.0 | 14.8 | 0.00 | 0.00 | 0.00 | 83 | 1010.7 |
| 20260506110204 | 58 | 196 | 7.0 | 14.8 | 0.00 | 0.00 | 0.00 | 83 | 1010.8 |
| 20260506110119 | 58 | 219 | 3.5 | 16.5 | 0.00 | 0.00 | 0.00 | 83 | 1011.0 |
| 20260506110105 | 58 | 198 | 7.0 | 14.8 | 0.00 | 0.00 | 0.00 | 83 | 1010.8 |
| 20260506110005 | 58 | 198 | 7.8 | 14.8 | 0.00 | 0.00 | 0.00 | 83 | 1010.7 |
| 20260506105405 | 58 | 205 | 7.0 | 20.0 | 0.00 | 0.00 | 0.00 | 84 | 1010.6 |
| 20260506105305 | 58 | 205 | 7.0 | 20.0 | 0.00 | 0.00 | 0.00 | 84 | 1010.6 |
| 20260506105204 | 58 | 205 | 7.0 | 20.0 | 0.00 | 0.00 | 0.00 | 84 | 1010.5 |
| 20260506105105 | 58 | 201 | 6.1 | 20.0 | 0.00 | 0.00 | 0.00 | 84 | 1010.5 |
| 20260506105004 | 58 | 202 | 6.1 | 20.0 | 0.00 | 0.00 | 0.00 | 84 | 1010.6 |
| 20260506104905 | 58 | 199 | 6.1 | 20.0 | 0.00 | 0.00 | 0.00 | 84 | 1010.6 |
| 20260506104805 | 58 | 199 | 6.1 | 20.0 | 0.00 | 0.00 | 0.00 | 84 | 1010.6 |
| 20260506104704 | 58 | 200 | 6.1 | 20.0 | 0.00 | 0.00 | 0.00 | 84 | 1010.6 |
| 20260506104610 | 57 | 223 | 7.0 | 20.0 | 0.00 | 0.00 | 0.00 | 84 | 1010.8 |
| 20260506104605 | 58 | 199 | 6.1 | 20.0 | 0.00 | 0.00 | 0.00 | 84 | 1010.6 |
| 20260506104504 | 58 | 201 | 5.2 | 20.0 | 0.00 | 0.00 | 0.00 | 84 | 1010.6 |
| 20260506104405 | 58 | 200 | 6.1 | 13.0 | 0.00 | 0.00 | 0.00 | 84 | 1010.6 |
| 20260506104305 | 58 | 199 | 6.1 | 15.6 | 0.00 | 0.00 | 0.00 | 84 | 1010.7 |
| 20260506104205 | 58 | 200 | 6.1 | 15.6 | 0.00 | 0.00 | 0.00 | 84 | 1010.7 |
| 20260506104104 | 58 | 200 | 6.1 | 15.6 | 0.00 | 0.00 | 0.00 | 84 | 1010.7 |
| 20260506104005 | 58 | 199 | 7.0 | 15.6 | 0.00 | 0.00 | 0.00 | 84 | 1010.6 |
| 20260506103905 | 58 | 198 | 7.0 | 15.6 | 0.00 | 0.00 | 0.00 | 84 | 1010.6 |
| 20260506103204 | 58 | 194 | 7.8 | 23.5 | 0.00 | 0.00 | 0.00 | 84 | 1010.7 |
| 20260506103117 | 57 | 117 | 7.0 | 20.9 | 0.00 | 0.00 | 0.00 | 84 | 1010.9 |
| 20260506103105 | 57 | 194 | 7.8 | 23.5 | 0.00 | 0.00 | 0.00 | 84 | 1010.8 |
| 20260506103004 | 57 | 193 | 7.8 | 23.5 | 0.00 | 0.00 | 0.00 | 84 | 1010.7 |
| 20260506102904 | 57 | 195 | 7.0 | 23.5 | 0.00 | 0.00 | 0.00 | 84 | 1010.8 |
| 20260506102805 | 57 | 194 | 7.0 | 23.5 | 0.00 | 0.00 | 0.00 | 84 | 1010.8 |
| 20260506102704 | 57 | 197 | 7.0 | 23.5 | 0.00 | 0.00 | 0.00 | 84 | 1010.8 |
| 20260506102605 | 57 | 197 | 7.0 | 23.5 | 0.00 | 0.00 | 0.00 | 84 | 1010.8 |
| 20260506102504 | 57 | 199 | 7.0 | 23.5 | 0.00 | 0.00 | 0.00 | 84 | 1010.8 |
| 20260506102405 | 57 | 201 | 7.0 | 23.5 | 0.00 | 0.00 | 0.00 | 84 | 1010.7 |
| 20260506102306 | 57 | 201 | 6.1 | 16.5 | 0.00 | 0.00 | 0.00 | 84 | 1010.7 |
| 20260506102204 | 57 | 199 | 6.1 | 16.5 | 0.00 | 0.00 | 0.00 | 84 | 1010.7 |
| 20260506102105 | 57 | 200 | 7.0 | 18.2 | 0.00 | 0.00 | 0.00 | 84 | 1010.8 |
| 20260506102005 | 58 | 201 | 7.0 | 19.1 | 0.00 | 0.00 | 0.00 | 84 | 1010.8 |
| 20260506101904 | 57 | 201 | 7.0 | 19.1 | 0.00 | 0.00 | 0.00 | 84 | 1010.7 |
| 20260506101805 | 57 | 201 | 7.0 | 19.1 | 0.00 | 0.00 | 0.00 | 84 | 1010.6 |
| 20260506101704 | 57 | 201 | 7.0 | 19.1 | 0.00 | 0.00 | 0.00 | 84 | 1010.8 |
| 20260506101637 | 57 | 176 | 4.3 | 18.2 | 0.00 | 0.00 | 0.00 | 84 | 1010.9 |
| 20260506101605 | 57 | 201 | 7.0 | 19.1 | 0.00 | 0.00 | 0.00 | 84 | 1010.7 |
| 20260506101505 | 57 | 201 | 7.0 | 19.1 | 0.00 | 0.00 | 0.00 | 84 | 1010.7 |
| 20260506101404 | 57 | 199 | 7.0 | 19.1 | 0.00 | 0.00 | 0.00 | 84 | 1010.6 |
| 20260506101305 | 57 | 199 | 7.8 | 19.1 | 0.00 | 0.00 | 0.00 | 84 | 1010.7 |
| 20260506101205 | 57 | 199 | 7.8 | 19.1 | 0.00 | 0.00 | 0.00 | 84 | 1010.7 |
| 20260506101104 | 57 | 199 | 7.8 | 19.1 | 0.00 | 0.00 | 0.00 | 84 | 1010.7 |
| 20260506101005 | 57 | 199 | 7.0 | 18.2 | 0.00 | 0.00 | 0.00 | 84 | 1010.7 |
| 20260506100904 | 58 | 198 | 7.0 | 18.2 | 0.00 | 0.00 | 0.00 | 84 | 1010.6 |
| 20260506100804 | 57 | 197 | 7.0 | 15.6 | 0.00 | 0.00 | 0.00 | 83 | 1010.7 |
| 20260506100705 | 58 | 195 | 7.0 | 15.6 | 0.00 | 0.00 | 0.00 | 84 | 1010.4 |
| 20260506100604 | 58 | 193 | 7.0 | 15.6 | 0.00 | 0.00 | 0.00 | 83 | 1010.6 |
| 20260506100504 | 58 | 192 | 7.0 | 15.6 | 0.00 | 0.00 | 0.00 | 83 | 1010.6 |
| 20260506100404 | 57 | 193 | 7.0 | 15.6 | 0.00 | 0.00 | 0.00 | 83 | 1010.5 |
| 20260506100304 | 58 | 193 | 7.0 | 15.6 | 0.00 | 0.00 | 0.00 | 84 | 1010.6 |
| 20260506100205 | 58 | 192 | 7.0 | 14.8 | 0.00 | 0.00 | 0.00 | 84 | 1010.6 |
| 20260506100117 | 57 | 183 | 6.1 | 14.8 | 0.00 | 0.00 | 0.00 | 84 | 1010.8 |
| 20260506095604 | 58 | 195 | 7.8 | 20.9 | 0.00 | 0.00 | 0.00 | 84 | 1010.6 |
| 20260506095505 | 58 | 196 | 7.8 | 20.9 | 0.00 | 0.00 | 0.00 | 84 | 1010.7 |
| 20260506095404 | 58 | 196 | 7.8 | 20.9 | 0.00 | 0.00 | 0.00 | 84 | 1010.6 |
| 20260506095306 | 58 | 197 | 8.7 | 20.9 | 0.00 | 0.00 | 0.00 | 84 | 1010.6 |
| 20260506095205 | 58 | 196 | 7.8 | 20.9 | 0.00 | 0.00 | 0.00 | 84 | 1010.5 |
| 20260506095105 | 58 | 196 | 8.7 | 20.9 | 0.00 | 0.00 | 0.00 | 84 | 1010.6 |
| 20260506095004 | 58 | 194 | 8.7 | 20.9 | 0.00 | 0.00 | 0.00 | 84 | 1010.6 |
| 20260506094905 | 58 | 194 | 7.8 | 20.9 | 0.00 | 0.00 | 0.00 | 84 | 1010.6 |
| 20260506094804 | 58 | 196 | 8.7 | 20.9 | 0.00 | 0.00 | 0.00 | 84 | 1010.5 |
| 20260506094705 | 58 | 198 | 8.7 | 20.9 | 0.00 | 0.00 | 0.00 | 84 | 1010.5 |
| 20260506094608 | 57 | 201 | 9.6 | 20.9 | 0.00 | 0.00 | 0.00 | 84 | 1010.7 |
| 20260506094605 | 58 | 196 | 8.7 | 20.9 | 0.00 | 0.00 | 0.00 | 84 | 1010.5 |
| 20260506094504 | 58 | 196 | 8.7 | 20.9 | 0.00 | 0.00 | 0.00 | 84 | 1010.6 |
| 20260506094404 | 58 | 197 | 7.8 | 20.9 | 0.00 | 0.00 | 0.00 | 84 | 1010.5 |
| 20260506094305 | 58 | 195 | 7.8 | 20.9 | 0.00 | 0.00 | 0.00 | 84 | 1010.5 |
| 20260506094205 | 58 | 195 | 7.8 | 20.9 | 0.00 | 0.00 | 0.00 | 84 | 1010.6 |
| 20260506094105 | 58 | 197 | 7.8 | 20.9 | 0.00 | 0.00 | 0.00 | 84 | 1010.5 |
| 20260506094004 | 58 | 198 | 7.8 | 20.9 | 0.00 | 0.00 | 0.00 | 84 | 1010.7 |
| 20260506093904 | 58 | 199 | 7.8 | 22.6 | 0.00 | 0.00 | 0.00 | 84 | 1010.5 |
| 20260506093805 | 58 | 198 | 7.8 | 22.6 | 0.00 | 0.00 | 0.00 | 84 | 1010.5 |
| 20260506093704 | 58 | 196 | 7.8 | 22.6 | 0.00 | 0.00 | 0.00 | 84 | 1010.5 |
| 20260506093605 | 58 | 197 | 7.8 | 22.6 | 0.00 | 0.00 | 0.00 | 84 | 1010.5 |
| 20260506093504 | 58 | 197 | 7.8 | 22.6 | 0.00 | 0.00 | 0.00 | 83 | 1010.6 |
| 20260506093405 | 58 | 196 | 7.8 | 22.6 | 0.00 | 0.00 | 0.00 | 84 | 1010.5 |
| 20260506093305 | 58 | 197 | 7.8 | 22.6 | 0.00 | 0.00 | 0.00 | 83 | 1010.5 |
| 20260506093204 | 58 | 199 | 7.8 | 22.6 | 0.00 | 0.00 | 0.00 | 84 | 1010.6 |
| 20260506093114 | 57 | 183 | 8.7 | 20.0 | 0.00 | 0.00 | 0.00 | 83 | 1010.7 |
| 20260506093105 | 58 | 198 | 7.8 | 22.6 | 0.00 | 0.00 | 0.00 | 83 | 1010.5 |
| 20260506093005 | 58 | 199 | 7.0 | 22.6 | 0.00 | 0.00 | 0.00 | 83 | 1010.5 |
| 20260506092904 | 58 | 200 | 7.0 | 17.4 | 0.00 | 0.00 | 0.00 | 83 | 1010.6 |
| 20260506092805 | 58 | 199 | 7.8 | 17.4 | 0.00 | 0.00 | 0.00 | 83 | 1010.6 |
| 20260506092704 | 58 | 197 | 7.0 | 17.4 | 0.00 | 0.00 | 0.00 | 83 | 1010.6 |
| 20260506092605 | 58 | 197 | 7.0 | 17.4 | 0.00 | 0.00 | 0.00 | 83 | 1010.7 |
| 20260506092504 | 58 | 198 | 7.0 | 17.4 | 0.00 | 0.00 | 0.00 | 83 | 1010.7 |
| 20260506092405 | 58 | 199 | 7.0 | 17.4 | 0.00 | 0.00 | 0.00 | 83 | 1010.6 |
| 20260506092306 | 58 | 200 | 7.0 | 17.4 | 0.00 | 0.00 | 0.00 | 83 | 1010.6 |
| 20260506092204 | 58 | 200 | 7.0 | 17.4 | 0.00 | 0.00 | 0.00 | 83 | 1010.6 |
| 20260506092105 | 58 | 200 | 7.8 | 17.4 | 0.00 | 0.00 | 0.00 | 83 | 1010.7 |
| 20260506092004 | 58 | 199 | 7.8 | 20.0 | 0.00 | 0.00 | 0.00 | 83 | 1010.7 |
| 20260506091904 | 58 | 197 | 7.8 | 20.0 | 0.00 | 0.00 | 0.00 | 83 | 1010.7 |
| 20260506091805 | 58 | 199 | 7.8 | 20.0 | 0.00 | 0.00 | 0.00 | 83 | 1010.7 |
| 20260506091704 | 58 | 200 | 7.8 | 20.0 | 0.00 | 0.00 | 0.00 | 83 | 1010.8 |
| 20260506091605 | 58 | 199 | 7.8 | 20.0 | 0.00 | 0.00 | 0.00 | 83 | 1010.7 |
| 20260506091506 | 57 | 166 | 7.0 | 20.9 | 0.00 | 0.00 | 0.00 | 83 | 1011.0 |
| 20260506091504 | 58 | 199 | 7.8 | 20.0 | 0.00 | 0.00 | 0.00 | 83 | 1010.7 |
| 20260506091405 | 58 | 199 | 8.7 | 20.0 | 0.00 | 0.00 | 0.00 | 83 | 1010.7 |
| 20260506091304 | 58 | 199 | 7.8 | 20.0 | 0.00 | 0.00 | 0.00 | 83 | 1010.8 |
| 20260506091205 | 58 | 198 | 7.8 | 20.0 | 0.00 | 0.00 | 0.00 | 83 | 1010.6 |
| 20260506091104 | 58 | 200 | 7.0 | 20.0 | 0.00 | 0.00 | 0.00 | 83 | 1010.7 |
| 20260506091004 | 58 | 201 | 7.0 | 17.4 | 0.00 | 0.00 | 0.00 | 83 | 1010.7 |
| 20260506090905 | 58 | 201 | 7.0 | 17.4 | 0.00 | 0.00 | 0.00 | 83 | 1010.8 |
| 20260506090804 | 58 | 201 | 7.0 | 17.4 | 0.00 | 0.00 | 0.00 | 83 | 1010.7 |
| 20260506090705 | 58 | 201 | 7.0 | 17.4 | 0.00 | 0.00 | 0.00 | 83 | 1010.7 |
| 20260506090112 | 58 | 196 | 4.3 | 19.1 | 0.00 | 0.00 | 0.00 | 83 | 1010.9 |
| 20260506090005 | 58 | 198 | 7.8 | 20.0 | 0.00 | 0.00 | 0.00 | 83 | 1010.7 |
| 20260506085904 | 58 | 200 | 7.8 | 20.0 | 0.00 | 0.00 | 0.00 | 83 | 1010.8 |
| 20260506085805 | 58 | 199 | 7.0 | 20.0 | 0.00 | 0.00 | 0.00 | 83 | 1010.7 |
| 20260506085704 | 58 | 199 | 7.0 | 20.0 | 0.00 | 0.00 | 0.00 | 83 | 1010.7 |
| 20260506085605 | 58 | 201 | 7.8 | 20.0 | 0.00 | 0.00 | 0.00 | 83 | 1010.8 |
| 20260506085504 | 58 | 201 | 7.0 | 20.0 | 0.00 | 0.00 | 0.00 | 83 | 1010.7 |
| 20260506085405 | 58 | 201 | 7.0 | 20.0 | 0.00 | 0.00 | 0.00 | 83 | 1010.8 |
| 20260506085306 | 58 | 200 | 7.0 | 20.0 | 0.00 | 0.00 | 0.00 | 83 | 1010.7 |
| 20260506085204 | 58 | 200 | 7.0 | 14.8 | 0.00 | 0.00 | 0.00 | 83 | 1010.8 |
| 20260506085105 | 58 | 198 | 7.0 | 14.8 | 0.00 | 0.00 | 0.00 | 83 | 1010.9 |
| 20260506085004 | 58 | 198 | 7.0 | 14.8 | 0.00 | 0.00 | 0.00 | 83 | 1010.9 |
| 20260506084904 | 58 | 197 | 7.0 | 14.8 | 0.00 | 0.00 | 0.00 | 83 | 1010.9 |
| 20260506084805 | 58 | 196 | 7.0 | 14.8 | 0.00 | 0.00 | 0.00 | 83 | 1010.9 |
| 20260506084704 | 58 | 197 | 7.0 | 14.8 | 0.00 | 0.00 | 0.00 | 83 | 1010.9 |
| 20260506084634 | 58 | 196 | 5.2 | 15.6 | 0.00 | 0.00 | 0.00 | 83 | 1011.2 |
| 20260506084605 | 58 | 196 | 7.0 | 14.8 | 0.00 | 0.00 | 0.00 | 83 | 1011.0 |
| 20260506084505 | 58 | 195 | 7.0 | 14.8 | 0.00 | 0.00 | 0.00 | 83 | 1010.9 |
| 20260506084404 | 58 | 196 | 7.0 | 14.8 | 0.00 | 0.00 | 0.00 | 83 | 1011.0 |
| 20260506084305 | 58 | 194 | 7.0 | 14.8 | 0.00 | 0.00 | 0.00 | 83 | 1010.9 |
| 20260506084204 | 58 | 193 | 7.0 | 14.8 | 0.00 | 0.00 | 0.00 | 82 | 1010.9 |
| 20260506084105 | 58 | 196 | 7.8 | 14.8 | 0.00 | 0.00 | 0.00 | 82 | 1010.9 |
| 20260506084004 | 58 | 197 | 7.8 | 14.8 | 0.00 | 0.00 | 0.00 | 82 | 1010.9 |
| 20260506083905 | 58 | 196 | 7.8 | 17.4 | 0.00 | 0.00 | 0.00 | 82 | 1010.9 |
| 20260506083804 | 58 | 199 | 7.8 | 20.9 | 0.00 | 0.00 | 0.00 | 82 | 1010.8 |
| 20260506083704 | 58 | 198 | 7.8 | 20.9 | 0.00 | 0.00 | 0.00 | 82 | 1011.0 |
| 20260506083605 | 58 | 201 | 7.8 | 20.9 | 0.00 | 0.00 | 0.00 | 82 | 1011.0 |
| 20260506083504 | 58 | 200 | 7.8 | 20.9 | 0.00 | 0.00 | 0.00 | 82 | 1011.0 |
| 20260506083405 | 58 | 202 | 7.8 | 20.9 | 0.00 | 0.00 | 0.00 | 82 | 1011.1 |
| 20260506083305 | 58 | 201 | 7.8 | 20.9 | 0.00 | 0.00 | 0.00 | 82 | 1011.1 |
| 20260506083204 | 58 | 202 | 7.8 | 20.9 | 0.00 | 0.00 | 0.00 | 82 | 1011.1 |
| 20260506083116 | 58 | 210 | 7.8 | 21.7 | 0.00 | 0.00 | 0.00 | 82 | 1011.3 |
| 20260506083105 | 58 | 198 | 7.8 | 20.9 | 0.00 | 0.00 | 0.00 | 82 | 1011.1 |
| 20260506083005 | 58 | 196 | 7.0 | 20.9 | 0.00 | 0.00 | 0.00 | 82 | 1011.1 |
| 20260506082904 | 58 | 196 | 7.0 | 20.9 | 0.00 | 0.00 | 0.00 | 82 | 1011.0 |
| 20260506082805 | 58 | 194 | 7.0 | 16.5 | 0.00 | 0.00 | 0.00 | 82 | 1011.0 |
| 20260506082705 | 58 | 193 | 6.1 | 16.5 | 0.00 | 0.00 | 0.00 | 82 | 1011.0 |
| 20260506082604 | 58 | 189 | 7.0 | 16.5 | 0.00 | 0.00 | 0.00 | 82 | 1011.1 |
| 20260506082505 | 58 | 189 | 7.0 | 19.1 | 0.00 | 0.00 | 0.00 | 82 | 1011.0 |
| 20260506082405 | 58 | 188 | 7.0 | 19.1 | 0.00 | 0.00 | 0.00 | 82 | 1011.1 |
| 20260506082305 | 58 | 188 | 7.0 | 19.1 | 0.00 | 0.00 | 0.00 | 82 | 1011.0 |
| 20260506082205 | 58 | 189 | 7.8 | 19.1 | 0.00 | 0.00 | 0.00 | 82 | 1011.1 |
| 20260506082105 | 58 | 190 | 7.0 | 19.1 | 0.00 | 0.00 | 0.00 | 82 | 1011.1 |
| 20260506082004 | 58 | 192 | 7.0 | 19.1 | 0.00 | 0.00 | 0.00 | 82 | 1011.1 |
| 20260506081905 | 58 | 191 | 7.8 | 19.1 | 0.00 | 0.00 | 0.00 | 82 | 1011.0 |
| 20260506081804 | 58 | 194 | 7.8 | 19.1 | 0.00 | 0.00 | 0.00 | 82 | 1011.1 |
| 20260506081705 | 58 | 195 | 7.8 | 19.1 | 0.00 | 0.00 | 0.00 | 82 | 1011.0 |
| 20260506081619 | 58 | 187 | 8.7 | 19.1 | 0.00 | 0.00 | 0.00 | 82 | 1011.2 |
| 20260506081605 | 58 | 196 | 7.8 | 19.1 | 0.00 | 0.00 | 0.00 | 82 | 1011.1 |
| 20260506081504 | 58 | 198 | 7.0 | 19.1 | 0.00 | 0.00 | 0.00 | 82 | 1011.0 |
| 20260506081405 | 58 | 198 | 7.0 | 19.1 | 0.00 | 0.00 | 0.00 | 82 | 1011.0 |
| 20260506081304 | 58 | 199 | 7.0 | 19.1 | 0.00 | 0.00 | 0.00 | 82 | 1011.0 |
| 20260506081204 | 58 | 197 | 7.0 | 15.6 | 0.00 | 0.00 | 0.00 | 81 | 1011.0 |
| 20260506081105 | 58 | 199 | 7.0 | 15.6 | 0.00 | 0.00 | 0.00 | 81 | 1011.0 |
| 20260506081004 | 58 | 198 | 7.0 | 15.6 | 0.00 | 0.00 | 0.00 | 81 | 1011.0 |
| 20260506080904 | 58 | 200 | 7.0 | 15.6 | 0.00 | 0.00 | 0.00 | 81 | 1010.9 |
| 20260506080805 | 58 | 196 | 7.0 | 15.6 | 0.00 | 0.00 | 0.00 | 81 | 1010.9 |
| 20260506080704 | 58 | 199 | 7.0 | 15.6 | 0.00 | 0.00 | 0.00 | 81 | 1011.0 |
| 20260506080604 | 58 | 200 | 6.1 | 15.6 | 0.00 | 0.00 | 0.00 | 81 | 1010.9 |
| 20260506080505 | 58 | 199 | 6.1 | 19.1 | 0.00 | 0.00 | 0.00 | 81 | 1011.0 |
| 20260506080404 | 58 | 198 | 7.0 | 19.1 | 0.00 | 0.00 | 0.00 | 81 | 1011.1 |
| 20260506080305 | 58 | 197 | 7.0 | 19.1 | 0.00 | 0.00 | 0.00 | 81 | 1011.1 |
| 20260506080205 | 58 | 197 | 6.1 | 19.1 | 0.00 | 0.00 | 0.00 | 81 | 1011.0 |
| 20260506080115 | 58 | 200 | 6.1 | 19.1 | 0.00 | 0.00 | 0.00 | 81 | 1011.3 |
| 20260506080104 | 58 | 198 | 7.0 | 19.1 | 0.00 | 0.00 | 0.00 | 81 | 1011.0 |
| 20260506073505 | 59 | 200 | 6.1 | 14.8 | 0.00 | 0.00 | 0.00 | 80 | 1011.3 |
| 20260506073405 | 59 | 202 | 6.1 | 19.1 | 0.00 | 0.00 | 0.00 | 80 | 1011.3 |
| 20260506073304 | 59 | 201 | 7.0 | 19.1 | 0.00 | 0.00 | 0.00 | 80 | 1011.3 |
| 20260506073205 | 59 | 201 | 7.0 | 19.1 | 0.00 | 0.00 | 0.00 | 80 | 1011.3 |
| 20260506073112 | 58 | 242 | 7.0 | 17.4 | 0.00 | 0.00 | 0.00 | 80 | 1011.5 |
| 20260506073104 | 59 | 203 | 6.1 | 19.1 | 0.00 | 0.00 | 0.00 | 80 | 1011.3 |
| 20260506073004 | 59 | 206 | 6.1 | 19.1 | 0.00 | 0.00 | 0.00 | 80 | 1011.2 |
| 20260506072905 | 59 | 207 | 6.1 | 19.1 | 0.00 | 0.00 | 0.00 | 80 | 1011.3 |
| 20260506072804 | 59 | 211 | 6.1 | 19.1 | 0.00 | 0.00 | 0.00 | 80 | 1011.4 |
| 20260506072705 | 59 | 211 | 6.1 | 19.1 | 0.00 | 0.00 | 0.00 | 80 | 1011.3 |
| 20260506072604 | 59 | 209 | 6.1 | 19.1 | 0.00 | 0.00 | 0.00 | 80 | 1011.3 |
| 20260506072505 | 59 | 210 | 6.1 | 19.1 | 0.00 | 0.00 | 0.00 | 80 | 1011.3 |
| 20260506072404 | 59 | 207 | 6.1 | 17.4 | 0.00 | 0.00 | 0.00 | 80 | 1011.3 |
| 20260506072306 | 59 | 207 | 6.1 | 17.4 | 0.00 | 0.00 | 0.00 | 80 | 1011.3 |
| 20260506072204 | 59 | 205 | 6.1 | 17.4 | 0.00 | 0.00 | 0.00 | 80 | 1011.3 |
| 20260506072104 | 59 | 204 | 6.1 | 17.4 | 0.00 | 0.00 | 0.00 | 80 | 1011.3 |
| 20260506072005 | 59 | 205 | 7.0 | 20.0 | 0.00 | 0.00 | 0.00 | 80 | 1011.3 |
| 20260506071904 | 59 | 205 | 7.0 | 20.0 | 0.00 | 0.00 | 0.00 | 80 | 1011.4 |
| 20260506071805 | 59 | 203 | 7.8 | 20.0 | 0.00 | 0.00 | 0.00 | 80 | 1011.3 |
| 20260506071705 | 59 | 204 | 7.0 | 20.0 | 0.00 | 0.00 | 0.00 | 80 | 1011.3 |
| 20260506071620 | 58 | 114 | 6.1 | 18.2 | 0.00 | 0.00 | 0.00 | 80 | 1011.4 |
| 20260506071604 | 59 | 205 | 7.8 | 20.0 | 0.00 | 0.00 | 0.00 | 80 | 1011.3 |
| 20260506071505 | 59 | 204 | 7.8 | 20.0 | 0.00 | 0.00 | 0.00 | 80 | 1011.3 |
| 20260506071405 | 59 | 203 | 7.0 | 20.0 | 0.00 | 0.00 | 0.00 | 80 | 1011.2 |
| 20260506071304 | 59 | 204 | 7.8 | 20.0 | 0.00 | 0.00 | 0.00 | 80 | 1011.3 |
| 20260506071205 | 59 | 204 | 7.8 | 20.0 | 0.00 | 0.00 | 0.00 | 80 | 1011.3 |
| 20260506071105 | 59 | 206 | 7.8 | 20.0 | 0.00 | 0.00 | 0.00 | 80 | 1011.3 |
| 20260506071004 | 59 | 204 | 7.0 | 18.2 | 0.00 | 0.00 | 0.00 | 80 | 1011.2 |
| 20260506070905 | 59 | 204 | 7.8 | 18.2 | 0.00 | 0.00 | 0.00 | 80 | 1011.2 |
| 20260506070804 | 59 | 202 | 7.0 | 20.0 | 0.00 | 0.00 | 0.00 | 80 | 1011.2 |
| 20260506070704 | 59 | 200 | 7.8 | 20.0 | 0.00 | 0.00 | 0.00 | 80 | 1011.2 |
| 20260506070605 | 59 | 200 | 7.8 | 20.0 | 0.00 | 0.00 | 0.00 | 80 | 1011.2 |
| 20260506070505 | 59 | 198 | 7.8 | 20.0 | 0.00 | 0.00 | 0.00 | 80 | 1011.2 |
| 20260506070404 | 59 | 203 | 7.8 | 20.0 | 0.00 | 0.00 | 0.00 | 80 | 1011.2 |
| 20260506070305 | 59 | 202 | 7.0 | 20.0 | 0.00 | 0.00 | 0.00 | 80 | 1011.3 |
| 20260506070204 | 59 | 204 | 7.0 | 20.0 | 0.00 | 0.00 | 0.00 | 80 | 1011.2 |
| 20260506070112 | 58 | 278 | 6.1 | 20.0 | 0.00 | 0.00 | 0.00 | 80 | 1011.4 |
| 20260506070104 | 59 | 202 | 7.0 | 20.0 | 0.00 | 0.00 | 0.00 | 80 | 1011.2 |
| 20260506062204 | 59 | 204 | 8.7 | 22.6 | 0.00 | 0.00 | 0.00 | 80 | 1010.9 |
| 20260506062105 | 59 | 204 | 8.7 | 22.6 | 0.00 | 0.00 | 0.00 | 80 | 1011.0 |
| 20260506062005 | 59 | 202 | 8.7 | 22.6 | 0.00 | 0.00 | 0.00 | 79 | 1011.1 |
| 20260506061904 | 59 | 201 | 8.7 | 22.6 | 0.00 | 0.00 | 0.00 | 80 | 1011.1 |
| 20260506061805 | 59 | 200 | 7.8 | 22.6 | 0.00 | 0.00 | 0.00 | 79 | 1011.0 |
| 20260506061704 | 59 | 200 | 7.8 | 22.6 | 0.00 | 0.00 | 0.00 | 79 | 1011.1 |
| 20260506061620 | 59 | 177 | 10.4 | 22.6 | 0.00 | 0.00 | 0.00 | 79 | 1011.2 |
| 20260506061604 | 59 | 202 | 7.8 | 22.6 | 0.00 | 0.00 | 0.00 | 79 | 1011.1 |
| 20260506061505 | 59 | 199 | 7.0 | 22.6 | 0.00 | 0.00 | 0.00 | 79 | 1011.1 |
| 20260506061404 | 59 | 200 | 7.0 | 21.7 | 0.00 | 0.00 | 0.00 | 79 | 1011.2 |
| 20260506061305 | 59 | 203 | 7.0 | 17.4 | 0.00 | 0.00 | 0.00 | 79 | 1011.1 |
| 20260506061205 | 59 | 202 | 7.0 | 16.5 | 0.00 | 0.00 | 0.00 | 79 | 1011.1 |
| 20260506061104 | 59 | 203 | 7.0 | 16.5 | 0.00 | 0.00 | 0.00 | 79 | 1011.2 |
| 20260506061005 | 59 | 205 | 7.0 | 16.5 | 0.00 | 0.00 | 0.00 | 79 | 1011.3 |
| 20260506060904 | 59 | 206 | 7.0 | 14.8 | 0.00 | 0.00 | 0.00 | 79 | 1011.0 |
| 20260506060804 | 59 | 207 | 7.0 | 21.7 | 0.00 | 0.00 | 0.00 | 79 | 1011.1 |
| 20260506060705 | 59 | 205 | 7.0 | 21.7 | 0.00 | 0.00 | 0.00 | 79 | 1011.2 |
| 20260506060604 | 59 | 205 | 7.0 | 21.7 | 0.00 | 0.00 | 0.00 | 79 | 1011.2 |
| 20260506060504 | 59 | 207 | 7.0 | 21.7 | 0.00 | 0.00 | 0.00 | 79 | 1011.2 |
| 20260506060405 | 59 | 205 | 7.0 | 21.7 | 0.00 | 0.00 | 0.00 | 79 | 1011.3 |
| 20260506060304 | 59 | 203 | 7.0 | 21.7 | 0.00 | 0.00 | 0.00 | 79 | 1011.2 |
| 20260506060205 | 59 | 202 | 7.0 | 21.7 | 0.00 | 0.00 | 0.00 | 79 | 1011.3 |
| 20260506060110 | 59 | 294 | 7.0 | 19.1 | 0.00 | 0.00 | 0.00 | 79 | 1011.5 |
| 20260506060104 | 59 | 199 | 7.0 | 21.7 | 0.00 | 0.00 | 0.00 | 79 | 1011.2 |
| 20260506051404 | 60 | 204 | 7.0 | 17.4 | 0.00 | 0.00 | 0.00 | 78 | 1011.3 |
| 20260506051305 | 60 | 203 | 7.8 | 17.4 | 0.00 | 0.00 | 0.00 | 78 | 1011.3 |
| 20260506051205 | 60 | 200 | 7.8 | 17.4 | 0.00 | 0.00 | 0.00 | 78 | 1011.3 |
| 20260506051104 | 60 | 202 | 7.8 | 17.4 | 0.00 | 0.00 | 0.00 | 78 | 1011.4 |
| 20260506051005 | 60 | 202 | 7.8 | 17.4 | 0.00 | 0.00 | 0.00 | 78 | 1011.2 |
| 20260506050904 | 60 | 203 | 7.8 | 18.2 | 0.00 | 0.00 | 0.00 | 78 | 1011.2 |
| 20260506050804 | 60 | 204 | 7.8 | 18.2 | 0.00 | 0.00 | 0.00 | 78 | 1011.3 |
| 20260506050705 | 60 | 205 | 7.8 | 18.2 | 0.00 | 0.00 | 0.00 | 78 | 1011.2 |
| 20260506050604 | 60 | 205 | 7.8 | 20.0 | 0.00 | 0.00 | 0.00 | 78 | 1011.3 |
| 20260506050505 | 60 | 206 | 7.8 | 20.0 | 0.00 | 0.00 | 0.00 | 78 | 1011.2 |
| 20260506050405 | 60 | 207 | 7.8 | 20.0 | 0.00 | 0.00 | 0.00 | 78 | 1011.2 |
| 20260506050304 | 60 | 207 | 8.7 | 20.0 | 0.00 | 0.00 | 0.00 | 78 | 1011.2 |
| 20260506050205 | 60 | 206 | 8.7 | 20.0 | 0.00 | 0.00 | 0.00 | 78 | 1011.3 |
| 20260506050119 | 59 | 155 | 7.0 | 20.0 | 0.00 | 0.00 | 0.00 | 78 | 1011.4 |
| 20260506050104 | 60 | 204 | 8.7 | 22.6 | 0.00 | 0.00 | 0.00 | 78 | 1011.3 |
| 20260506045104 | 60 | 201 | 7.8 | 25.2 | 0.00 | 0.00 | 0.00 | 78 | 1011.3 |
| 20260506045004 | 60 | 201 | 8.7 | 25.2 | 0.00 | 0.00 | 0.00 | 78 | 1011.3 |
| 20260506044905 | 60 | 200 | 7.8 | 25.2 | 0.00 | 0.00 | 0.00 | 78 | 1011.3 |
| 20260506044804 | 60 | 199 | 7.8 | 25.2 | 0.00 | 0.00 | 0.00 | 78 | 1011.2 |
| 20260506044705 | 60 | 200 | 7.8 | 25.2 | 0.00 | 0.00 | 0.00 | 77 | 1011.2 |
| 20260506044617 | 59 | 196 | 8.7 | 25.2 | 0.00 | 0.00 | 0.00 | 77 | 1011.5 |
| 20260506044605 | 60 | 199 | 7.8 | 25.2 | 0.00 | 0.00 | 0.00 | 77 | 1011.3 |
| 20260506044504 | 60 | 200 | 7.8 | 25.2 | 0.00 | 0.00 | 0.00 | 77 | 1011.2 |
| 20260506044405 | 60 | 201 | 7.8 | 25.2 | 0.00 | 0.00 | 0.00 | 77 | 1011.3 |
| 20260506044305 | 60 | 200 | 7.8 | 25.2 | 0.00 | 0.00 | 0.00 | 77 | 1011.3 |
| 20260506044204 | 60 | 200 | 7.8 | 25.2 | 0.00 | 0.00 | 0.00 | 77 | 1011.3 |
| 20260506044105 | 60 | 200 | 7.8 | 20.0 | 0.00 | 0.00 | 0.00 | 77 | 1011.3 |
| 20260506044004 | 60 | 200 | 7.8 | 20.0 | 0.00 | 0.00 | 0.00 | 77 | 1011.4 |
| 20260506043904 | 60 | 198 | 7.8 | 20.0 | 0.00 | 0.00 | 0.00 | 77 | 1011.3 |
| 20260506043805 | 60 | 200 | 7.8 | 20.0 | 0.00 | 0.00 | 0.00 | 77 | 1011.3 |
| 20260506043705 | 60 | 200 | 8.7 | 20.0 | 0.00 | 0.00 | 0.00 | 77 | 1011.3 |
| 20260506043604 | 60 | 205 | 8.7 | 24.3 | 0.00 | 0.00 | 0.00 | 77 | 1011.3 |
| 20260506043505 | 60 | 203 | 7.8 | 24.3 | 0.00 | 0.00 | 0.00 | 77 | 1011.2 |
| 20260506043405 | 60 | 204 | 8.7 | 24.3 | 0.00 | 0.00 | 0.00 | 77 | 1011.3 |
| 20260506043304 | 60 | 207 | 8.7 | 24.3 | 0.00 | 0.00 | 0.00 | 78 | 1011.2 |
| 20260506043205 | 60 | 205 | 9.6 | 24.3 | 0.00 | 0.00 | 0.00 | 78 | 1011.2 |
| 20260506043109 | 59 | 168 | 6.1 | 24.3 | 0.00 | 0.00 | 0.00 | 78 | 1011.5 |
| 20260506043105 | 60 | 205 | 9.6 | 24.3 | 0.00 | 0.00 | 0.00 | 78 | 1011.2 |
| 20260506043004 | 60 | 206 | 10.4 | 24.3 | 0.00 | 0.00 | 0.00 | 78 | 1011.3 |
| 20260506042905 | 60 | 206 | 10.4 | 24.3 | 0.00 | 0.00 | 0.00 | 78 | 1011.3 |
| 20260506042804 | 60 | 206 | 10.4 | 24.3 | 0.00 | 0.00 | 0.00 | 78 | 1011.3 |
| 20260506042704 | 60 | 207 | 10.4 | 24.3 | 0.00 | 0.00 | 0.00 | 78 | 1011.4 |
| 20260506042605 | 60 | 203 | 9.6 | 28.7 | 0.00 | 0.00 | 0.00 | 78 | 1011.2 |
| 20260506042504 | 60 | 204 | 10.4 | 28.7 | 0.00 | 0.00 | 0.00 | 78 | 1011.3 |
| 20260506042404 | 60 | 202 | 9.6 | 28.7 | 0.00 | 0.00 | 0.00 | 78 | 1011.3 |
| 20260506042305 | 60 | 200 | 9.6 | 28.7 | 0.00 | 0.00 | 0.00 | 78 | 1011.3 |
| 20260506042204 | 60 | 203 | 9.6 | 28.7 | 0.00 | 0.00 | 0.00 | 78 | 1011.3 |
| 20260506042105 | 59 | 203 | 7.8 | 28.7 | 0.00 | 0.00 | 0.00 | 78 | 1011.2 |
| 20260506042004 | 59 | 203 | 7.8 | 28.7 | 0.00 | 0.00 | 0.00 | 78 | 1011.1 |
| 20260506041904 | 59 | 205 | 7.8 | 28.7 | 0.00 | 0.00 | 0.00 | 78 | 1011.1 |
| 20260506041805 | 59 | 204 | 7.8 | 28.7 | 0.00 | 0.00 | 0.00 | 78 | 1011.3 |
| 20260506041704 | 59 | 202 | 7.0 | 28.7 | 0.00 | 0.00 | 0.00 | 78 | 1011.2 |
| 20260506041616 | 59 | 168 | 7.0 | 24.3 | 0.00 | 0.00 | 0.00 | 78 | 1011.5 |
| 20260506041604 | 59 | 204 | 7.0 | 24.3 | 0.00 | 0.00 | 0.00 | 78 | 1011.3 |
| 20260506041505 | 59 | 204 | 7.0 | 24.3 | 0.00 | 0.00 | 0.00 | 78 | 1011.3 |
| 20260506041404 | 59 | 208 | 7.0 | 24.3 | 0.00 | 0.00 | 0.00 | 78 | 1011.3 |
| 20260506041304 | 59 | 209 | 6.1 | 24.3 | 0.00 | 0.00 | 0.00 | 78 | 1011.3 |
| 20260506041204 | 59 | 207 | 6.1 | 16.5 | 0.00 | 0.00 | 0.00 | 77 | 1011.2 |
| 20260506041104 | 59 | 206 | 7.0 | 16.5 | 0.00 | 0.00 | 0.00 | 78 | 1011.2 |
| 20260506041005 | 59 | 206 | 7.0 | 16.5 | 0.00 | 0.00 | 0.00 | 77 | 1011.2 |
| 20260506040904 | 59 | 200 | 7.0 | 26.1 | 0.00 | 0.00 | 0.00 | 77 | 1011.2 |
| 20260506040804 | 59 | 202 | 7.0 | 26.1 | 0.00 | 0.00 | 0.00 | 77 | 1011.2 |
| 20260506040705 | 59 | 202 | 7.0 | 26.1 | 0.00 | 0.00 | 0.00 | 77 | 1011.2 |
| 20260506040604 | 59 | 204 | 7.8 | 26.1 | 0.00 | 0.00 | 0.00 | 77 | 1011.2 |
| 20260506040505 | 59 | 204 | 7.0 | 26.1 | 0.00 | 0.00 | 0.00 | 77 | 1011.2 |
| 20260506040405 | 59 | 202 | 7.8 | 26.1 | 0.00 | 0.00 | 0.00 | 77 | 1011.2 |
| 20260506040107 | 59 | 198 | 8.7 | 26.1 | 0.00 | 0.00 | 0.00 | 77 | 1011.4 |
| 20260506035804 | 59 | 204 | 7.8 | 20.0 | 0.00 | 0.00 | 0.00 | 77 | 1011.2 |
| 20260506035704 | 59 | 205 | 7.8 | 20.0 | 0.00 | 0.00 | 0.00 | 77 | 1011.1 |
| 20260506035605 | 59 | 203 | 7.8 | 16.5 | 0.00 | 0.00 | 0.00 | 77 | 1011.2 |
| 20260506035504 | 59 | 202 | 8.7 | 16.5 | 0.00 | 0.00 | 0.00 | 77 | 1011.3 |
| 20260506035404 | 59 | 204 | 8.7 | 26.1 | 0.00 | 0.00 | 0.00 | 77 | 1011.1 |
| 20260506035306 | 59 | 206 | 8.7 | 26.1 | 0.00 | 0.00 | 0.00 | 77 | 1011.2 |
| 20260506035204 | 59 | 205 | 8.7 | 26.1 | 0.00 | 0.00 | 0.00 | 77 | 1011.2 |
| 20260506035104 | 59 | 206 | 8.7 | 26.1 | 0.00 | 0.00 | 0.00 | 77 | 1011.2 |
| 20260506035004 | 59 | 206 | 8.7 | 26.1 | 0.00 | 0.00 | 0.00 | 77 | 1011.3 |
| 20260506034904 | 59 | 205 | 7.8 | 26.1 | 0.00 | 0.00 | 0.00 | 77 | 1011.2 |
| 20260506034804 | 59 | 207 | 8.7 | 26.1 | 0.00 | 0.00 | 0.00 | 77 | 1011.3 |
| 20260506034704 | 59 | 208 | 7.8 | 26.1 | 0.00 | 0.00 | 0.00 | 77 | 1011.2 |
| 20260506034618 | 59 | 240 | 7.8 | 26.1 | 0.00 | 0.00 | 0.00 | 77 | 1011.4 |
| 20260506034604 | 59 | 209 | 8.7 | 26.1 | 0.00 | 0.00 | 0.00 | 77 | 1011.2 |
| 20260506034504 | 59 | 209 | 8.7 | 26.1 | 0.00 | 0.00 | 0.00 | 76 | 1011.2 |
| 20260506034405 | 59 | 207 | 7.8 | 23.5 | 0.00 | 0.00 | 0.00 | 76 | 1011.2 |
| 20260506034304 | 59 | 207 | 8.7 | 23.5 | 0.00 | 0.00 | 0.00 | 76 | 1011.2 |
| 20260506034205 | 59 | 207 | 8.7 | 23.5 | 0.00 | 0.00 | 0.00 | 76 | 1011.2 |
| 20260506034104 | 59 | 207 | 8.7 | 23.5 | 0.00 | 0.00 | 0.00 | 76 | 1011.2 |
| 20260506034005 | 60 | 208 | 7.8 | 23.5 | 0.00 | 0.00 | 0.00 | 76 | 1011.4 |
| 20260506033905 | 60 | 208 | 8.7 | 23.5 | 0.00 | 0.00 | 0.00 | 76 | 1011.4 |
| 20260506033804 | 60 | 205 | 8.7 | 23.5 | 0.00 | 0.00 | 0.00 | 76 | 1011.3 |
| 20260506033705 | 60 | 205 | 7.8 | 21.7 | 0.00 | 0.00 | 0.00 | 76 | 1011.3 |
| 20260506033107 | 59 | 216 | 6.1 | 16.5 | 0.00 | 0.00 | 0.00 | 76 | 1011.4 |
| 20260506033104 | 60 | 203 | 7.8 | 20.0 | 0.00 | 0.00 | 0.00 | 76 | 1011.2 |
| 20260506033005 | 60 | 203 | 8.7 | 20.0 | 0.00 | 0.00 | 0.00 | 76 | 1011.4 |
| 20260506032904 | 60 | 201 | 7.8 | 20.0 | 0.00 | 0.00 | 0.00 | 76 | 1011.2 |
| 20260506032804 | 60 | 204 | 7.8 | 20.0 | 0.00 | 0.00 | 0.00 | 76 | 1011.3 |
| 20260506032705 | 60 | 206 | 8.7 | 20.0 | 0.00 | 0.00 | 0.00 | 76 | 1011.3 |
| 20260506032604 | 60 | 207 | 8.7 | 20.0 | 0.00 | 0.00 | 0.00 | 76 | 1011.3 |
| 20260506032504 | 60 | 208 | 7.8 | 20.0 | 0.00 | 0.00 | 0.00 | 76 | 1011.3 |
| 20260506032405 | 60 | 208 | 8.7 | 20.0 | 0.00 | 0.00 | 0.00 | 76 | 1011.3 |
| 20260506032306 | 60 | 208 | 8.7 | 20.0 | 0.00 | 0.00 | 0.00 | 76 | 1011.4 |
| 20260506032204 | 60 | 209 | 7.8 | 20.0 | 0.00 | 0.00 | 0.00 | 76 | 1011.4 |
| 20260506032105 | 60 | 209 | 7.8 | 16.5 | 0.00 | 0.00 | 0.00 | 76 | 1011.3 |
| 20260506032004 | 60 | 208 | 7.8 | 16.5 | 0.00 | 0.00 | 0.00 | 76 | 1011.2 |
| 20260506031904 | 60 | 209 | 7.8 | 21.7 | 0.00 | 0.00 | 0.00 | 76 | 1011.3 |
| 20260506031805 | 60 | 209 | 7.8 | 21.7 | 0.00 | 0.00 | 0.00 | 76 | 1011.4 |
| 20260506031704 | 60 | 207 | 7.8 | 21.7 | 0.00 | 0.00 | 0.00 | 76 | 1011.3 |
| 20260506031616 | 59 | 196 | 7.8 | 21.7 | 0.00 | 0.00 | 0.00 | 76 | 1011.5 |
| 20260506031605 | 60 | 207 | 7.8 | 21.7 | 0.00 | 0.00 | 0.00 | 76 | 1011.2 |
| 20260506031504 | 60 | 207 | 7.0 | 21.7 | 0.00 | 0.00 | 0.00 | 76 | 1011.3 |
| 20260506031404 | 60 | 206 | 7.8 | 21.7 | 0.00 | 0.00 | 0.00 | 76 | 1011.3 |
| 20260506031305 | 60 | 205 | 7.8 | 21.7 | 0.00 | 0.00 | 0.00 | 76 | 1011.4 |
| 20260506031204 | 60 | 206 | 7.0 | 21.7 | 0.00 | 0.00 | 0.00 | 76 | 1011.2 |
| 20260506031104 | 60 | 204 | 7.0 | 21.7 | 0.00 | 0.00 | 0.00 | 76 | 1011.2 |
| 20260506031005 | 60 | 203 | 7.0 | 21.7 | 0.00 | 0.00 | 0.00 | 76 | 1011.2 |
| 20260506030904 | 60 | 207 | 7.0 | 21.7 | 0.00 | 0.00 | 0.00 | 76 | 1011.3 |
| 20260506030805 | 60 | 207 | 7.8 | 15.6 | 0.00 | 0.00 | 0.00 | 75 | 1011.3 |
| 20260506030705 | 60 | 208 | 7.8 | 18.2 | 0.00 | 0.00 | 0.00 | 75 | 1011.3 |
| 20260506030604 | 60 | 207 | 7.8 | 18.2 | 0.00 | 0.00 | 0.00 | 75 | 1011.2 |
| 20260506030505 | 60 | 206 | 7.8 | 18.2 | 0.00 | 0.00 | 0.00 | 75 | 1011.3 |
| 20260506030404 | 60 | 206 | 7.8 | 18.2 | 0.00 | 0.00 | 0.00 | 75 | 1011.2 |
| 20260506030304 | 60 | 206 | 7.8 | 18.2 | 0.00 | 0.00 | 0.00 | 75 | 1011.4 |
| 20260506030205 | 60 | 206 | 7.8 | 18.2 | 0.00 | 0.00 | 0.00 | 75 | 1011.2 |
| 20260506030106 | 60 | 181 | 7.0 | 19.1 | 0.00 | 0.00 | 0.00 | 75 | 1011.4 |
| 20260506030104 | 60 | 209 | 7.8 | 18.2 | 0.00 | 0.00 | 0.00 | 75 | 1011.4 |
| 20260506030005 | 60 | 209 | 7.8 | 18.2 | 0.00 | 0.00 | 0.00 | 75 | 1011.3 |
| 20260506025905 | 60 | 207 | 7.8 | 18.2 | 0.00 | 0.00 | 0.00 | 75 | 1011.3 |
| 20260506025804 | 60 | 204 | 7.8 | 18.2 | 0.00 | 0.00 | 0.00 | 75 | 1011.2 |
| 20260506025705 | 60 | 202 | 7.0 | 16.5 | 0.00 | 0.00 | 0.00 | 75 | 1011.3 |
| 20260506025604 | 60 | 204 | 7.8 | 16.5 | 0.00 | 0.00 | 0.00 | 75 | 1011.4 |
| 20260506025504 | 60 | 203 | 7.0 | 16.5 | 0.00 | 0.00 | 0.00 | 75 | 1011.4 |
| 20260506025405 | 60 | 203 | 7.8 | 16.5 | 0.00 | 0.00 | 0.00 | 75 | 1011.4 |
| 20260506024614 | 60 | 212 | 7.0 | 18.2 | 0.00 | 0.00 | 0.00 | 74 | 1011.7 |
| 20260506024204 | 60 | 200 | 7.8 | 20.0 | 0.00 | 0.00 | 0.00 | 74 | 1011.4 |
| 20260506024105 | 60 | 199 | 7.8 | 20.0 | 0.00 | 0.00 | 0.00 | 74 | 1011.3 |
| 20260506024005 | 60 | 201 | 7.8 | 20.0 | 0.00 | 0.00 | 0.00 | 74 | 1011.4 |
| 20260506023904 | 60 | 203 | 8.7 | 20.0 | 0.00 | 0.00 | 0.00 | 74 | 1011.3 |
| 20260506023805 | 60 | 202 | 7.8 | 21.7 | 0.00 | 0.00 | 0.00 | 74 | 1011.4 |
| 20260506023113 | 60 | 218 | 9.6 | 19.1 | 0.00 | 0.00 | 0.00 | 74 | 1011.5 |
| 20260506023104 | 61 | 203 | 8.7 | 21.7 | 0.00 | 0.00 | 0.00 | 74 | 1011.4 |
| 20260506023004 | 61 | 204 | 7.8 | 21.7 | 0.00 | 0.00 | 0.00 | 74 | 1011.3 |
| 20260506022905 | 61 | 203 | 7.8 | 21.7 | 0.00 | 0.00 | 0.00 | 74 | 1011.3 |
| 20260506022804 | 61 | 205 | 7.8 | 20.9 | 0.00 | 0.00 | 0.00 | 74 | 1011.3 |
| 20260506022704 | 61 | 204 | 7.8 | 20.9 | 0.00 | 0.00 | 0.00 | 74 | 1011.4 |
| 20260506022605 | 61 | 205 | 7.8 | 20.9 | 0.00 | 0.00 | 0.00 | 74 | 1011.4 |
| 20260506021612 | 60 | 197 | 8.7 | 20.0 | 0.00 | 0.00 | 0.00 | 73 | 1011.6 |
| 20260506021504 | 61 | 198 | 7.8 | 21.7 | 0.00 | 0.00 | 0.00 | 73 | 1011.3 |
| 20260506021404 | 61 | 195 | 8.7 | 21.7 | 0.00 | 0.00 | 0.00 | 73 | 1011.3 |
| 20260506021305 | 61 | 197 | 7.8 | 21.7 | 0.00 | 0.00 | 0.00 | 73 | 1011.4 |
| 20260506021204 | 61 | 197 | 8.7 | 21.7 | 0.00 | 0.00 | 0.00 | 73 | 1011.3 |
| 20260506021104 | 61 | 196 | 7.8 | 21.7 | 0.00 | 0.00 | 0.00 | 73 | 1011.3 |
| 20260506021005 | 61 | 197 | 7.8 | 21.7 | 0.00 | 0.00 | 0.00 | 73 | 1011.2 |
| 20260506020904 | 61 | 197 | 7.8 | 21.7 | 0.00 | 0.00 | 0.00 | 73 | 1011.3 |
| 20260506020804 | 61 | 198 | 7.8 | 20.0 | 0.00 | 0.00 | 0.00 | 73 | 1011.3 |
| 20260506020705 | 61 | 200 | 7.8 | 20.0 | 0.00 | 0.00 | 0.00 | 73 | 1011.3 |
| 20260506020604 | 61 | 200 | 7.8 | 20.0 | 0.00 | 0.00 | 0.00 | 72 | 1011.4 |
| 20260506020505 | 61 | 201 | 7.8 | 19.1 | 0.00 | 0.00 | 0.00 | 72 | 1011.4 |
| 20260506020405 | 61 | 206 | 7.0 | 19.1 | 0.00 | 0.00 | 0.00 | 73 | 1011.4 |
| 20260506020304 | 61 | 203 | 7.8 | 14.8 | 0.00 | 0.00 | 0.00 | 73 | 1011.3 |
| 20260506020205 | 61 | 205 | 7.8 | 14.8 | 0.00 | 0.00 | 0.00 | 73 | 1011.2 |
| 20260506020104 | 61 | 207 | 7.8 | 14.8 | 0.00 | 0.00 | 0.00 | 72 | 1011.3 |
| 20260506020004 | 61 | 209 | 7.8 | 18.2 | 0.00 | 0.00 | 0.00 | 72 | 1011.3 |
| 20260506015905 | 61 | 210 | 8.7 | 18.2 | 0.00 | 0.00 | 0.00 | 72 | 1011.4 |
| 20260506015804 | 61 | 213 | 8.7 | 24.3 | 0.00 | 0.00 | 0.00 | 72 | 1011.3 |
| 20260506015704 | 61 | 211 | 8.7 | 24.3 | 0.00 | 0.00 | 0.00 | 72 | 1011.2 |
| 20260506015605 | 61 | 211 | 8.7 | 24.3 | 0.00 | 0.00 | 0.00 | 72 | 1011.2 |
| 20260506015504 | 61 | 214 | 8.7 | 24.3 | 0.00 | 0.00 | 0.00 | 72 | 1011.3 |
| 20260506015404 | 61 | 211 | 9.6 | 24.3 | 0.00 | 0.00 | 0.00 | 72 | 1011.3 |
| 20260506015306 | 61 | 213 | 8.7 | 24.3 | 0.00 | 0.00 | 0.00 | 72 | 1011.3 |
| 20260506015204 | 61 | 213 | 8.7 | 24.3 | 0.00 | 0.00 | 0.00 | 72 | 1011.3 |
| 20260506015104 | 62 | 214 | 8.7 | 24.3 | 0.00 | 0.00 | 0.00 | 72 | 1011.3 |
| 20260506015004 | 62 | 212 | 8.7 | 24.3 | 0.00 | 0.00 | 0.00 | 72 | 1011.2 |
| 20260506014904 | 62 | 213 | 8.7 | 24.3 | 0.00 | 0.00 | 0.00 | 72 | 1011.3 |
| 20260506014805 | 62 | 215 | 8.7 | 23.5 | 0.00 | 0.00 | 0.00 | 72 | 1011.2 |
| 20260506014704 | 62 | 219 | 8.7 | 23.5 | 0.00 | 0.00 | 0.00 | 71 | 1011.3 |
| 20260506014610 | 61 | 239 | 8.7 | 22.6 | 0.00 | 0.00 | 0.00 | 72 | 1011.5 |
| 20260506014605 | 62 | 219 | 7.8 | 23.5 | 0.00 | 0.00 | 0.00 | 71 | 1011.4 |
| 20260506014504 | 62 | 219 | 7.8 | 23.5 | 0.00 | 0.00 | 0.00 | 71 | 1011.2 |
| 20260506014404 | 62 | 220 | 7.8 | 23.5 | 0.00 | 0.00 | 0.00 | 71 | 1011.2 |
| 20260506014305 | 62 | 219 | 8.7 | 23.5 | 0.00 | 0.00 | 0.00 | 71 | 1011.3 |
| 20260506014204 | 62 | 219 | 8.7 | 23.5 | 0.00 | 0.00 | 0.00 | 71 | 1011.2 |
| 20260506014105 | 62 | 219 | 8.7 | 23.5 | 0.00 | 0.00 | 0.00 | 71 | 1011.1 |
| 20260506014004 | 62 | 219 | 8.7 | 23.5 | 0.00 | 0.00 | 0.00 | 71 | 1011.2 |
| 20260506013904 | 62 | 218 | 7.8 | 23.5 | 0.00 | 0.00 | 0.00 | 71 | 1011.1 |
| 20260506013805 | 62 | 217 | 8.7 | 20.0 | 0.00 | 0.00 | 0.00 | 71 | 1011.1 |
| 20260506013704 | 62 | 214 | 7.8 | 20.0 | 0.00 | 0.00 | 0.00 | 71 | 1011.2 |
| 20260506013604 | 62 | 214 | 7.8 | 19.1 | 0.00 | 0.00 | 0.00 | 71 | 1011.0 |
| 20260506013505 | 62 | 210 | 7.8 | 19.1 | 0.00 | 0.00 | 0.00 | 71 | 1011.1 |
| 20260506013404 | 62 | 211 | 7.8 | 19.1 | 0.00 | 0.00 | 0.00 | 71 | 1010.9 |
| 20260506013304 | 62 | 211 | 7.0 | 19.1 | 0.00 | 0.00 | 0.00 | 71 | 1011.1 |
| 20260506013117 | 61 | 221 | 6.1 | 19.1 | 0.00 | 0.00 | 0.00 | 71 | 1011.2 |
| 20260506012704 | 62 | 205 | 8.7 | 25.2 | 0.00 | 0.00 | 0.00 | 71 | 1011.0 |
| 20260506012604 | 62 | 206 | 9.6 | 25.2 | 0.00 | 0.00 | 0.00 | 71 | 1011.0 |
| 20260506012505 | 62 | 208 | 9.6 | 26.1 | 0.00 | 0.00 | 0.00 | 71 | 1010.8 |
| 20260506012404 | 62 | 207 | 9.6 | 26.1 | 0.00 | 0.00 | 0.00 | 71 | 1010.9 |
| 20260506012307 | 62 | 207 | 8.7 | 26.1 | 0.00 | 0.00 | 0.00 | 71 | 1010.9 |
| 20260506012205 | 62 | 208 | 8.7 | 26.1 | 0.00 | 0.00 | 0.00 | 71 | 1010.9 |
| 20260506012104 | 62 | 205 | 9.6 | 26.1 | 0.00 | 0.00 | 0.00 | 71 | 1010.9 |
| 20260506012004 | 62 | 205 | 9.6 | 26.1 | 0.00 | 0.00 | 0.00 | 71 | 1010.8 |
| 20260506011904 | 62 | 205 | 9.6 | 26.1 | 0.00 | 0.00 | 0.00 | 71 | 1010.7 |
| 20260506011804 | 62 | 205 | 9.6 | 26.1 | 0.00 | 0.00 | 0.00 | 70 | 1010.9 |
| 20260506011705 | 62 | 207 | 8.7 | 26.1 | 0.00 | 0.00 | 0.00 | 70 | 1010.8 |
| 20260506011608 | 62 | 185 | 11.3 | 25.2 | 0.00 | 0.00 | 0.00 | 70 | 1011.0 |
| 20260506011604 | 62 | 206 | 8.7 | 26.1 | 0.00 | 0.00 | 0.00 | 70 | 1010.8 |
| 20260506011504 | 62 | 204 | 8.7 | 23.5 | 0.00 | 0.00 | 0.00 | 70 | 1010.7 |
| 20260506011405 | 62 | 204 | 8.7 | 23.5 | 0.00 | 0.00 | 0.00 | 70 | 1010.8 |
| 20260506011304 | 62 | 204 | 9.6 | 23.5 | 0.00 | 0.00 | 0.00 | 70 | 1010.8 |
| 20260506011204 | 62 | 204 | 9.6 | 23.5 | 0.00 | 0.00 | 0.00 | 70 | 1010.8 |
| 20260506011105 | 62 | 204 | 8.7 | 23.5 | 0.00 | 0.00 | 0.00 | 70 | 1010.7 |
| 20260506011004 | 62 | 205 | 8.7 | 19.1 | 0.00 | 0.00 | 0.00 | 70 | 1010.7 |
| 20260506010904 | 62 | 206 | 8.7 | 19.1 | 0.00 | 0.00 | 0.00 | 70 | 1010.7 |
| 20260506010805 | 62 | 206 | 7.8 | 19.1 | 0.00 | 0.00 | 0.00 | 70 | 1010.6 |
| 20260506010704 | 62 | 205 | 8.7 | 19.1 | 0.00 | 0.00 | 0.00 | 70 | 1010.7 |
| 20260506010604 | 62 | 206 | 8.7 | 19.1 | 0.00 | 0.00 | 0.00 | 70 | 1010.7 |
| 20260506010505 | 62 | 207 | 8.7 | 19.1 | 0.00 | 0.00 | 0.00 | 70 | 1010.6 |
| 20260506010115 | 61 | 240 | 7.8 | 20.0 | 0.00 | 0.00 | 0.00 | 71 | 1010.9 |
| 20260506005904 | 62 | 209 | 7.8 | 19.1 | 0.00 | 0.00 | 0.00 | 71 | 1010.5 |
| 20260506005804 | 62 | 210 | 7.8 | 19.1 | 0.00 | 0.00 | 0.00 | 71 | 1010.6 |
| 20260506005705 | 62 | 209 | 7.8 | 19.1 | 0.00 | 0.00 | 0.00 | 71 | 1010.5 |
| 20260506005604 | 62 | 208 | 7.0 | 19.1 | 0.00 | 0.00 | 0.00 | 71 | 1010.5 |
| 20260506005504 | 62 | 206 | 7.8 | 19.1 | 0.00 | 0.00 | 0.00 | 71 | 1010.4 |
| 20260506005405 | 62 | 207 | 7.8 | 19.1 | 0.00 | 0.00 | 0.00 | 71 | 1010.4 |
| 20260506005305 | 62 | 207 | 7.8 | 19.1 | 0.00 | 0.00 | 0.00 | 71 | 1010.5 |
| 20260506005204 | 62 | 207 | 7.8 | 19.1 | 0.00 | 0.00 | 0.00 | 71 | 1010.4 |
| 20260506005105 | 62 | 207 | 7.8 | 19.1 | 0.00 | 0.00 | 0.00 | 71 | 1010.5 |
| 20260506005004 | 62 | 208 | 7.8 | 19.1 | 0.00 | 0.00 | 0.00 | 71 | 1010.5 |
| 20260506004904 | 62 | 209 | 8.7 | 22.6 | 0.00 | 0.00 | 0.00 | 71 | 1010.4 |
| 20260506004805 | 62 | 208 | 8.7 | 22.6 | 0.00 | 0.00 | 0.00 | 71 | 1010.4 |
| 20260506004704 | 62 | 208 | 8.7 | 22.6 | 0.00 | 0.00 | 0.00 | 71 | 1010.5 |
| 20260506004604 | 61 | 163 | 7.0 | 22.6 | 0.00 | 0.00 | 0.00 | 71 | 1010.7 |
| 20260506004505 | 62 | 210 | 9.6 | 22.6 | 0.00 | 0.00 | 0.00 | 71 | 1010.4 |
| 20260506004404 | 62 | 211 | 8.7 | 22.6 | 0.00 | 0.00 | 0.00 | 71 | 1010.4 |
| 20260506004304 | 62 | 209 | 8.7 | 22.6 | 0.00 | 0.00 | 0.00 | 71 | 1010.4 |
| 20260506004205 | 62 | 212 | 8.7 | 22.6 | 0.00 | 0.00 | 0.00 | 71 | 1010.3 |
| 20260506004105 | 62 | 210 | 8.7 | 22.6 | 0.00 | 0.00 | 0.00 | 71 | 1010.2 |
| 20260506004004 | 62 | 211 | 8.7 | 22.6 | 0.00 | 0.00 | 0.00 | 71 | 1010.1 |
| 20260506003904 | 62 | 209 | 8.7 | 20.0 | 0.00 | 0.00 | 0.00 | 71 | 1010.3 |
| 20260506003804 | 62 | 210 | 8.7 | 25.2 | 0.00 | 0.00 | 0.00 | 71 | 1010.4 |
| 20260506003705 | 62 | 212 | 8.7 | 25.2 | 0.00 | 0.00 | 0.00 | 71 | 1010.2 |
| 20260506003604 | 62 | 212 | 8.7 | 25.2 | 0.00 | 0.00 | 0.00 | 71 | 1010.2 |
| 20260506003504 | 62 | 211 | 8.7 | 28.7 | 0.00 | 0.00 | 0.00 | 71 | 1010.3 |
| 20260506003404 | 62 | 211 | 8.7 | 28.7 | 0.00 | 0.00 | 0.00 | 71 | 1010.2 |
| 20260506003304 | 62 | 212 | 9.6 | 28.7 | 0.00 | 0.00 | 0.00 | 71 | 1010.2 |
| 20260506003205 | 62 | 210 | 9.6 | 28.7 | 0.00 | 0.00 | 0.00 | 71 | 1010.2 |
| 20260506003110 | 61 | 275 | 8.7 | 26.9 | 0.00 | 0.00 | 0.00 | 71 | 1010.4 |
| 20260506003104 | 62 | 212 | 9.6 | 28.7 | 0.00 | 0.00 | 0.00 | 71 | 1010.2 |
| 20260506003004 | 62 | 212 | 9.6 | 28.7 | 0.00 | 0.00 | 0.00 | 71 | 1010.1 |
| 20260506002905 | 62 | 214 | 9.6 | 28.7 | 0.00 | 0.00 | 0.00 | 71 | 1010.1 |
| 20260506002804 | 62 | 213 | 9.6 | 28.7 | 0.00 | 0.00 | 0.00 | 71 | 1010.2 |
| 20260506002704 | 62 | 212 | 9.6 | 28.7 | 0.00 | 0.00 | 0.00 | 71 | 1010.2 |
| 20260506002605 | 62 | 212 | 9.6 | 28.7 | 0.00 | 0.00 | 0.00 | 71 | 1010.1 |
| 20260506002504 | 62 | 212 | 9.6 | 26.9 | 0.00 | 0.00 | 0.00 | 70 | 1010.2 |
| 20260506002404 | 62 | 212 | 9.6 | 26.9 | 0.00 | 0.00 | 0.00 | 70 | 1010.1 |
| 20260506002306 | 62 | 211 | 9.6 | 26.9 | 0.00 | 0.00 | 0.00 | 71 | 1010.1 |
| 20260506002204 | 62 | 209 | 9.6 | 24.3 | 0.00 | 0.00 | 0.00 | 71 | 1010.1 |
| 20260506002105 | 62 | 210 | 9.6 | 24.3 | 0.00 | 0.00 | 0.00 | 71 | 1010.0 |
| 20260506002004 | 62 | 210 | 9.6 | 24.3 | 0.00 | 0.00 | 0.00 | 71 | 1010.0 |
| 20260506001904 | 62 | 210 | 9.6 | 24.3 | 0.00 | 0.00 | 0.00 | 71 | 1010.1 |
| 20260506001805 | 62 | 210 | 9.6 | 24.3 | 0.00 | 0.00 | 0.00 | 71 | 1009.9 |
| 20260506001704 | 62 | 212 | 10.4 | 24.3 | 0.00 | 0.00 | 0.00 | 71 | 1010.1 |
| 20260506001604 | 62 | 213 | 10.4 | 24.3 | 0.00 | 0.00 | 0.00 | 71 | 1010.0 |
| 20260506001505 | 62 | 215 | 10.4 | 26.9 | 0.00 | 0.00 | 0.00 | 71 | 1010.0 |
| 20260506001404 | 62 | 215 | 10.4 | 26.9 | 0.00 | 0.00 | 0.00 | 71 | 1010.1 |
| 20260506001304 | 62 | 215 | 10.4 | 26.9 | 0.00 | 0.00 | 0.00 | 71 | 1009.9 |
| 20260506001204 | 62 | 217 | 9.6 | 26.9 | 0.00 | 0.00 | 0.00 | 70 | 1010.1 |
| 20260506001104 | 62 | 215 | 9.6 | 26.9 | 0.00 | 0.00 | 0.00 | 71 | 1010.0 |
| 20260506001005 | 62 | 214 | 9.6 | 26.9 | 0.00 | 0.00 | 0.00 | 70 | 1010.2 |
| 20260506000904 | 62 | 213 | 9.6 | 26.9 | 0.00 | 0.00 | 0.00 | 70 | 1010.0 |
| 20260506000804 | 62 | 213 | 8.7 | 26.9 | 0.00 | 0.00 | 0.00 | 70 | 1009.9 |
| 20260506000704 | 62 | 210 | 8.7 | 26.9 | 0.00 | 0.00 | 0.00 | 70 | 1010.1 |
| 20260506000604 | 62 | 210 | 8.7 | 26.9 | 0.00 | 0.00 | 0.00 | 70 | 1010.0 |
| 20260506000505 | 62 | 206 | 8.7 | 20.9 | 0.00 | 0.00 | 0.00 | 70 | 1010.1 |
| 20260506000405 | 62 | 205 | 8.7 | 20.9 | 0.00 | 0.00 | 0.00 | 70 | 1009.9 |
| 20260506000304 | 62 | 205 | 8.7 | 20.9 | 0.00 | 0.00 | 0.00 | 70 | 1009.9 |
| 20260506000205 | 62 | 206 | 8.7 | 21.7 | 0.00 | 0.00 | 0.00 | 70 | 1009.8 |
| 20260506000108 | 61 | 73 | 7.8 | 23.5 | 0.00 | 0.00 | 0.00 | 70 | 1010.0 |
| 20260506000105 | 62 | 206 | 8.7 | 21.7 | 0.00 | 0.00 | 0.00 | 70 | 1009.7 |
| 20260506000004 | 62 | 207 | 8.7 | 21.7 | 0.00 | 0.00 | 0.00 | 70 | 1009.9 |
| 20260505235904 | 62 | 205 | 8.7 | 21.7 | 0.00 | 0.00 | 0.00 | 70 | 1009.8 |
| 20260505235805 | 62 | 205 | 8.7 | 21.7 | 0.00 | 0.00 | 0.00 | 70 | 1009.8 |
| 20260505235704 | 62 | 209 | 8.7 | 21.7 | 0.00 | 0.00 | 0.00 | 70 | 1009.6 |
| 20260505235604 | 62 | 209 | 8.7 | 21.7 | 0.00 | 0.00 | 0.00 | 70 | 1009.7 |
| 20260505235504 | 62 | 209 | 8.7 | 21.7 | 0.00 | 0.00 | 0.00 | 70 | 1009.8 |
| 20260505235404 | 62 | 211 | 9.6 | 21.7 | 0.00 | 0.00 | 0.00 | 70 | 1009.8 |
| 20260505235305 | 62 | 211 | 8.7 | 21.7 | 0.00 | 0.00 | 0.00 | 70 | 1009.6 |
| 20260505235204 | 62 | 212 | 8.7 | 20.9 | 0.00 | 0.00 | 0.00 | 70 | 1009.7 |
| 20260505235104 | 62 | 212 | 9.6 | 20.9 | 0.00 | 0.00 | 0.00 | 70 | 1009.9 |
| 20260505235004 | 62 | 213 | 9.6 | 20.9 | 0.00 | 0.00 | 0.00 | 70 | 1009.8 |
| 20260505234904 | 62 | 215 | 9.6 | 20.9 | 0.00 | 0.00 | 0.00 | 69 | 1009.8 |
| 20260505234805 | 62 | 214 | 10.4 | 23.5 | 0.00 | 0.00 | 0.00 | 69 | 1009.8 |
| 20260505234704 | 62 | 212 | 9.6 | 23.5 | 0.00 | 0.00 | 0.00 | 69 | 1009.9 |
| 20260505234619 | 62 | 261 | 8.7 | 23.5 | 0.00 | 0.00 | 0.00 | 69 | 1010.1 |
| 20260505234604 | 62 | 212 | 9.6 | 23.5 | 0.00 | 0.00 | 0.00 | 69 | 1009.8 |
| 20260505234505 | 62 | 213 | 9.6 | 23.5 | 0.00 | 0.00 | 0.00 | 69 | 1009.9 |
| 20260505234404 | 62 | 212 | 9.6 | 23.5 | 0.00 | 0.00 | 0.00 | 69 | 1009.9 |
| 20260505234304 | 62 | 211 | 9.6 | 23.5 | 0.00 | 0.00 | 0.00 | 69 | 1009.8 |
| 20260505234205 | 62 | 212 | 9.6 | 23.5 | 0.00 | 0.00 | 0.00 | 69 | 1009.7 |
| 20260505234104 | 62 | 213 | 8.7 | 23.5 | 0.00 | 0.00 | 0.00 | 69 | 1009.9 |
| 20260505234004 | 62 | 210 | 8.7 | 23.5 | 0.00 | 0.00 | 0.00 | 69 | 1009.7 |
| 20260505233904 | 62 | 210 | 8.7 | 23.5 | 0.00 | 0.00 | 0.00 | 69 | 1009.7 |
| 20260505233804 | 63 | 210 | 7.8 | 20.9 | 0.00 | 0.00 | 0.00 | 69 | 1009.6 |
| 20260505233704 | 63 | 208 | 8.7 | 18.2 | 0.00 | 0.00 | 0.00 | 69 | 1009.6 |
| 20260505233604 | 63 | 210 | 7.8 | 27.8 | 0.00 | 0.00 | 0.00 | 69 | 1009.6 |
| 20260505233504 | 63 | 211 | 7.8 | 27.8 | 0.00 | 0.00 | 0.00 | 69 | 1009.7 |
| 20260505233404 | 63 | 210 | 7.0 | 27.8 | 0.00 | 0.00 | 0.00 | 69 | 1009.6 |
| 20260505233304 | 63 | 210 | 7.0 | 27.8 | 0.00 | 0.00 | 0.00 | 69 | 1009.6 |
| 20260505233204 | 63 | 209 | 7.0 | 27.8 | 0.00 | 0.00 | 0.00 | 69 | 1009.6 |
| 20260505233107 | 62 | 189 | 7.8 | 26.1 | 0.00 | 0.00 | 0.00 | 69 | 1009.8 |
| 20260505233105 | 63 | 206 | 7.8 | 27.8 | 0.00 | 0.00 | 0.00 | 69 | 1009.6 |
| 20260505233004 | 63 | 208 | 7.8 | 27.8 | 0.00 | 0.00 | 0.00 | 69 | 1009.6 |
| 20260505232904 | 63 | 208 | 7.8 | 27.8 | 0.00 | 0.00 | 0.00 | 69 | 1009.5 |
| 20260505232805 | 63 | 211 | 7.8 | 27.8 | 0.00 | 0.00 | 0.00 | 69 | 1009.5 |
| 20260505232704 | 63 | 211 | 7.8 | 27.8 | 0.00 | 0.00 | 0.00 | 69 | 1009.4 |
| 20260505232604 | 63 | 209 | 7.8 | 26.1 | 0.00 | 0.00 | 0.00 | 69 | 1009.4 |
| 20260505232505 | 63 | 208 | 8.7 | 26.1 | 0.00 | 0.00 | 0.00 | 69 | 1009.5 |
| 20260505232404 | 63 | 207 | 8.7 | 26.1 | 0.00 | 0.00 | 0.00 | 69 | 1009.4 |
| 20260505232305 | 63 | 207 | 9.6 | 26.1 | 0.00 | 0.00 | 0.00 | 68 | 1009.5 |
| 20260505232205 | 63 | 207 | 10.4 | 26.1 | 0.00 | 0.00 | 0.00 | 68 | 1009.5 |
| 20260505232104 | 63 | 211 | 9.6 | 26.1 | 0.00 | 0.00 | 0.00 | 68 | 1009.5 |
| 20260505232004 | 63 | 210 | 9.6 | 26.1 | 0.00 | 0.00 | 0.00 | 68 | 1009.5 |
| 20260505231905 | 63 | 210 | 9.6 | 26.1 | 0.00 | 0.00 | 0.00 | 68 | 1009.5 |
| 20260505231804 | 63 | 208 | 8.7 | 26.1 | 0.00 | 0.00 | 0.00 | 68 | 1009.4 |
| 20260505231704 | 63 | 206 | 8.7 | 26.1 | 0.00 | 0.00 | 0.00 | 68 | 1009.5 |
| 20260505231620 | 63 | 183 | 11.3 | 25.2 | 0.00 | 0.00 | 0.00 | 68 | 1009.7 |
| 20260505231604 | 63 | 208 | 8.7 | 26.1 | 0.00 | 0.00 | 0.00 | 68 | 1009.5 |
| 20260505231504 | 63 | 207 | 8.7 | 21.7 | 0.00 | 0.00 | 0.00 | 68 | 1009.5 |
| 20260505231405 | 63 | 210 | 8.7 | 26.9 | 0.00 | 0.00 | 0.00 | 68 | 1009.5 |
| 20260505231304 | 63 | 209 | 7.8 | 26.9 | 0.00 | 0.00 | 0.00 | 68 | 1009.5 |
| 20260505231204 | 63 | 208 | 7.8 | 26.9 | 0.00 | 0.00 | 0.00 | 68 | 1009.6 |
| 20260505231105 | 63 | 204 | 7.8 | 26.9 | 0.00 | 0.00 | 0.00 | 68 | 1009.5 |
| 20260505231004 | 63 | 206 | 8.7 | 26.9 | 0.00 | 0.00 | 0.00 | 68 | 1009.7 |
| 20260505230904 | 63 | 206 | 8.7 | 26.9 | 0.00 | 0.00 | 0.00 | 68 | 1009.5 |
| 20260505230805 | 63 | 208 | 8.7 | 27.8 | 0.00 | 0.00 | 0.00 | 68 | 1009.5 |
| 20260505230704 | 63 | 209 | 8.7 | 27.8 | 0.00 | 0.00 | 0.00 | 68 | 1009.4 |
| 20260505230604 | 63 | 211 | 8.7 | 27.8 | 0.00 | 0.00 | 0.00 | 68 | 1009.5 |
| 20260505230505 | 63 | 211 | 8.7 | 27.8 | 0.00 | 0.00 | 0.00 | 68 | 1009.4 |
| 20260505230404 | 63 | 214 | 7.8 | 27.8 | 0.00 | 0.00 | 0.00 | 68 | 1009.4 |
| 20260505230304 | 63 | 215 | 7.8 | 27.8 | 0.00 | 0.00 | 0.00 | 68 | 1009.4 |
| 20260505230204 | 63 | 216 | 7.8 | 27.8 | 0.00 | 0.00 | 0.00 | 68 | 1009.5 |
| 20260505230123 | 0 | 205 | 10.4 | 24.3 | 0.00 | 0.00 | 0.00 | 1009.6 | |
| 20260505230104 | 63 | 219 | 7.8 | 27.8 | 0.00 | 0.00 | 0.00 | 68 | 1009.4 |
| 20260505230004 | 63 | 220 | 8.7 | 27.8 | 0.00 | 0.00 | 0.00 | 68 | 1009.5 |
| 20260505225904 | 63 | 219 | 8.7 | 27.8 | 0.00 | 0.00 | 0.00 | 68 | 1009.5 |
| 20260505225804 | 63 | 218 | 9.6 | 26.1 | 0.00 | 0.00 | 0.00 | 68 | 1009.4 |
| 20260505225705 | 64 | 217 | 9.6 | 26.1 | 0.00 | 0.00 | 0.00 | 67 | 1009.3 |
| 20260505225604 | 64 | 217 | 9.6 | 26.1 | 0.00 | 0.00 | 0.00 | 67 | 1009.4 |
| 20260505225504 | 64 | 216 | 9.6 | 26.1 | 0.00 | 0.00 | 0.00 | 67 | 1009.5 |
| 20260505225404 | 64 | 213 | 10.4 | 21.7 | 0.00 | 0.00 | 0.00 | 67 | 1009.4 |
| 20260505225306 | 64 | 215 | 10.4 | 21.7 | 0.00 | 0.00 | 0.00 | 67 | 1009.4 |
| 20260505224704 | 64 | 210 | 8.7 | 21.7 | 0.00 | 0.00 | 0.00 | 67 | 1009.4 |
| 20260505224618 | 0 | 223 | 12.2 | 21.7 | 0.00 | 0.00 | 0.00 | 1009.5 | |
| 20260505224604 | 64 | 209 | 8.7 | 21.7 | 0.00 | 0.00 | 0.00 | 67 | 1009.4 |
| 20260505224504 | 64 | 210 | 8.7 | 21.7 | 0.00 | 0.00 | 0.00 | 67 | 1009.2 |
| 20260505224404 | 64 | 212 | 8.7 | 19.1 | 0.00 | 0.00 | 0.00 | 67 | 1009.3 |
| 20260505224304 | 64 | 210 | 8.7 | 19.1 | 0.00 | 0.00 | 0.00 | 67 | 1009.3 |
| 20260505224204 | 64 | 212 | 8.7 | 19.1 | 0.00 | 0.00 | 0.00 | 67 | 1009.2 |
| 20260505224104 | 64 | 212 | 8.7 | 19.1 | 0.00 | 0.00 | 0.00 | 67 | 1009.1 |
| 20260505224004 | 64 | 214 | 8.7 | 19.1 | 0.00 | 0.00 | 0.00 | 67 | 1009.3 |
| 20260505223904 | 64 | 216 | 8.7 | 19.1 | 0.00 | 0.00 | 0.00 | 66 | 1009.3 |
| 20260505223804 | 64 | 217 | 8.7 | 19.1 | 0.00 | 0.00 | 0.00 | 66 | 1009.3 |
| 20260505223704 | 64 | 217 | 8.7 | 19.1 | 0.00 | 0.00 | 0.00 | 66 | 1009.3 |
| 20260505223604 | 64 | 218 | 8.7 | 19.1 | 0.00 | 0.00 | 0.00 | 66 | 1009.3 |
| 20260505223505 | 64 | 219 | 8.7 | 19.1 | 0.00 | 0.00 | 0.00 | 66 | 1009.3 |
| 20260505223405 | 64 | 216 | 8.7 | 19.1 | 0.00 | 0.00 | 0.00 | 66 | 1009.3 |
| 20260505223304 | 64 | 218 | 8.7 | 19.1 | 0.00 | 0.00 | 0.00 | 66 | 1009.1 |
| 20260505223104 | 65 | 186 | 9.6 | 21.7 | 0.00 | 0.00 | 0.00 | 64 | 1009.4 |
| 20260505222704 | 65 | 214 | 9.6 | 25.2 | 0.00 | 0.00 | 0.00 | 65 | 1009.0 |
| 20260505222604 | 65 | 215 | 9.6 | 25.2 | 0.00 | 0.00 | 0.00 | 65 | 1009.2 |
| 20260505222504 | 65 | 214 | 8.7 | 25.2 | 0.00 | 0.00 | 0.00 | 64 | 1009.2 |
| 20260505222404 | 65 | 214 | 7.8 | 25.2 | 0.00 | 0.00 | 0.00 | 64 | 1009.2 |
| 20260505222306 | 65 | 215 | 8.7 | 25.2 | 0.00 | 0.00 | 0.00 | 64 | 1009.2 |
| 20260505221616 | 66 | 162 | 5.2 | 14.8 | 0.00 | 0.00 | 0.00 | 64 | 1009.4 |
| 20260505220104 | 66 | 223 | 8.7 | 25.2 | 0.00 | 0.00 | 0.00 | 63 | 1009.2 |
| 20260505220004 | 67 | 204 | 7.0 | 23.5 | 0.00 | 0.00 | 0.00 | 62 | 1009.1 |
| 20260505215904 | 67 | 205 | 7.0 | 19.1 | 0.00 | 0.00 | 0.00 | 62 | 1009.0 |
| 20260505215804 | 67 | 205 | 7.0 | 19.1 | 0.00 | 0.00 | 0.00 | 62 | 1009.0 |
| 20260505215704 | 67 | 203 | 7.0 | 14.8 | 0.00 | 0.00 | 0.00 | 62 | 1009.0 |
| 20260505215604 | 67 | 200 | 7.0 | 14.8 | 0.00 | 0.00 | 0.00 | 62 | 1009.0 |
| 20260505215504 | 67 | 202 | 7.0 | 14.8 | 0.00 | 0.00 | 0.00 | 62 | 1008.8 |
| 20260505214614 | 67 | 142 | 4.3 | 16.5 | 0.00 | 0.00 | 0.00 | 61 | 1008.9 |
| 20260505214304 | 68 | 204 | 7.0 | 16.5 | 0.00 | 0.00 | 0.00 | 61 | 1008.8 |
| 20260505214204 | 68 | 202 | 7.0 | 16.5 | 0.00 | 0.00 | 0.00 | 61 | 1008.8 |
| 20260505214104 | 68 | 201 | 6.1 | 16.5 | 0.00 | 0.00 | 0.00 | 61 | 1008.9 |
| 20260505214004 | 68 | 200 | 6.1 | 16.5 | 0.00 | 0.00 | 0.00 | 61 | 1008.9 |
| 20260505213904 | 68 | 200 | 6.1 | 16.5 | 0.00 | 0.00 | 0.00 | 61 | 1008.8 |
| 20260505213805 | 68 | 199 | 6.1 | 16.5 | 0.00 | 0.00 | 0.00 | 61 | 1008.8 |
| 20260505213704 | 68 | 201 | 6.1 | 16.5 | 0.00 | 0.00 | 0.00 | 61 | 1009.0 |
| 20260505213604 | 68 | 203 | 5.2 | 16.5 | 0.00 | 0.00 | 0.00 | 61 | 1009.0 |
| 20260505213504 | 68 | 204 | 6.1 | 12.2 | 0.00 | 0.00 | 0.00 | 62 | 1009.0 |
| 20260505213404 | 68 | 206 | 6.1 | 12.2 | 0.00 | 0.00 | 0.00 | 61 | 1008.9 |
| 20260505213303 | 68 | 206 | 6.1 | 14.8 | 0.00 | 0.00 | 0.00 | 61 | 1009.0 |
| 20260505213204 | 68 | 209 | 6.1 | 14.8 | 0.00 | 0.00 | 0.00 | 61 | 1009.0 |
| 20260505213104 | 68 | 210 | 6.1 | 14.8 | 0.00 | 0.00 | 0.00 | 61 | 1008.9 |
| 20260505213004 | 68 | 212 | 6.1 | 14.8 | 0.00 | 0.00 | 0.00 | 61 | 1009.0 |
| 20260505212904 | 69 | 213 | 7.0 | 14.8 | 0.00 | 0.00 | 0.00 | 61 | 1008.9 |
| 20260505212203 | 69 | 210 | 7.0 | 15.6 | 0.00 | 0.00 | 0.00 | 61 | 1008.9 |
| 20260505212104 | 69 | 209 | 7.0 | 15.6 | 0.00 | 0.00 | 0.00 | 61 | 1008.8 |
| 20260505212004 | 69 | 208 | 7.0 | 15.6 | 0.00 | 0.00 | 0.00 | 61 | 1008.9 |
| 20260505211904 | 69 | 208 | 7.0 | 18.2 | 0.00 | 0.00 | 0.00 | 61 | 1008.9 |
| 20260505211804 | 69 | 208 | 7.0 | 18.2 | 0.00 | 0.00 | 0.00 | 61 | 1008.7 |
| 20260505211704 | 69 | 206 | 7.0 | 18.2 | 0.00 | 0.00 | 0.00 | 61 | 1008.9 |
| 20260505211604 | 69 | 206 | 6.1 | 18.2 | 0.00 | 0.00 | 0.00 | 61 | 1008.7 |
| 20260505211505 | 69 | 206 | 6.1 | 18.2 | 0.00 | 0.00 | 0.00 | 61 | 1008.7 |
| 20260505211404 | 69 | 207 | 6.1 | 18.2 | 0.00 | 0.00 | 0.00 | 61 | 1008.8 |
| 20260505211304 | 69 | 209 | 6.1 | 18.2 | 0.00 | 0.00 | 0.00 | 61 | 1008.8 |
| 20260505210104 | 69 | 202 | 7.0 | 14.8 | 0.00 | 0.00 | 0.00 | 61 | 1008.6 |
| 20260505210004 | 69 | 201 | 6.1 | 18.2 | 0.00 | 0.00 | 0.00 | 61 | 1008.6 |
| 20260505205905 | 69 | 200 | 6.1 | 18.2 | 0.00 | 0.00 | 0.00 | 61 | 1008.6 |
| 20260505205804 | 69 | 200 | 7.0 | 18.2 | 0.00 | 0.00 | 0.00 | 61 | 1008.7 |
| 20260505205704 | 69 | 200 | 7.0 | 18.2 | 0.00 | 0.00 | 0.00 | 61 | 1008.6 |
| 20260505205605 | 69 | 199 | 7.8 | 18.2 | 0.00 | 0.00 | 0.00 | 61 | 1008.5 |
| 20260505205504 | 69 | 200 | 7.8 | 18.2 | 0.00 | 0.00 | 0.00 | 60 | 1008.7 |
| 20260505205404 | 69 | 199 | 8.7 | 18.2 | 0.00 | 0.00 | 0.00 | 60 | 1008.6 |
| 20260505205305 | 70 | 198 | 8.7 | 18.2 | 0.00 | 0.00 | 0.00 | 60 | 1008.7 |
| 20260505205204 | 70 | 195 | 8.7 | 18.2 | 0.00 | 0.00 | 0.00 | 60 | 1008.7 |
| 20260505205104 | 70 | 195 | 7.8 | 18.2 | 0.00 | 0.00 | 0.00 | 60 | 1008.7 |
| 20260505205004 | 70 | 194 | 7.0 | 17.4 | 0.00 | 0.00 | 0.00 | 60 | 1008.6 |
| 20260505204904 | 70 | 194 | 7.0 | 17.4 | 0.00 | 0.00 | 0.00 | 60 | 1008.7 |
| 20260505204805 | 70 | 194 | 6.1 | 17.4 | 0.00 | 0.00 | 0.00 | 60 | 1008.6 |
| 20260505204704 | 70 | 194 | 6.1 | 17.4 | 0.00 | 0.00 | 0.00 | 61 | 1008.6 |
| 20260505204604 | 70 | 194 | 5.2 | 17.4 | 0.00 | 0.00 | 0.00 | 61 | 1008.6 |
| 20260505204505 | 70 | 194 | 5.2 | 17.4 | 0.00 | 0.00 | 0.00 | 61 | 1008.7 |
| 20260505204404 | 70 | 197 | 5.2 | 17.4 | 0.00 | 0.00 | 0.00 | 61 | 1008.6 |
| 20260505204304 | 70 | 199 | 4.3 | 14.8 | 0.00 | 0.00 | 0.00 | 61 | 1008.7 |
| 20260505204204 | 70 | 203 | 5.2 | 14.8 | 0.00 | 0.00 | 0.00 | 61 | 1008.7 |
| 20260505204104 | 70 | 206 | 5.2 | 14.8 | 0.00 | 0.00 | 0.00 | 61 | 1008.7 |
| 20260505204004 | 70 | 209 | 5.2 | 14.8 | 0.00 | 0.00 | 0.00 | 60 | 1008.7 |
| 20260505203904 | 70 | 207 | 6.1 | 14.8 | 0.00 | 0.00 | 0.00 | 60 | 1008.7 |
| 20260505203804 | 70 | 205 | 6.1 | 14.8 | 0.00 | 0.00 | 0.00 | 60 | 1008.8 |
| 20260505203704 | 70 | 203 | 6.1 | 14.8 | 0.00 | 0.00 | 0.00 | 60 | 1008.7 |
| 20260505203604 | 70 | 201 | 6.1 | 14.8 | 0.00 | 0.00 | 0.00 | 60 | 1008.7 |
| 20260505203504 | 70 | 199 | 6.1 | 13.0 | 0.00 | 0.00 | 0.00 | 60 | 1008.6 |
| 20260505203404 | 70 | 196 | 6.1 | 13.0 | 0.00 | 0.00 | 0.00 | 60 | 1008.8 |
| 20260505203304 | 70 | 196 | 6.1 | 14.8 | 0.00 | 0.00 | 0.00 | 60 | 1008.7 |
| 20260505203204 | 70 | 195 | 6.1 | 14.8 | 0.00 | 0.00 | 0.00 | 60 | 1008.7 |
| 20260505203104 | 70 | 194 | 7.0 | 14.8 | 0.00 | 0.00 | 0.00 | 60 | 1008.8 |
| 20260505203004 | 70 | 193 | 6.1 | 14.8 | 0.00 | 0.00 | 0.00 | 60 | 1008.7 |
| 20260505202904 | 70 | 190 | 6.1 | 14.8 | 0.00 | 0.00 | 0.00 | 61 | 1008.8 |
| 20260505202805 | 70 | 188 | 6.1 | 14.8 | 0.00 | 0.00 | 0.00 | 60 | 1008.7 |
| 20260505202704 | 70 | 186 | 6.1 | 14.8 | 0.00 | 0.00 | 0.00 | 61 | 1008.7 |
| 20260505202604 | 70 | 190 | 6.1 | 15.6 | 0.00 | 0.00 | 0.00 | 60 | 1008.7 |
| 20260505202505 | 70 | 191 | 6.1 | 15.6 | 0.00 | 0.00 | 0.00 | 61 | 1008.8 |
| 20260505202404 | 70 | 190 | 6.1 | 15.6 | 0.00 | 0.00 | 0.00 | 60 | 1008.7 |
| 20260505202306 | 70 | 191 | 7.0 | 15.6 | 0.00 | 0.00 | 0.00 | 61 | 1008.7 |
| 20260505202204 | 70 | 194 | 7.0 | 15.6 | 0.00 | 0.00 | 0.00 | 61 | 1008.7 |
| 20260505202104 | 70 | 191 | 6.1 | 15.6 | 0.00 | 0.00 | 0.00 | 61 | 1008.7 |
| 20260505202004 | 70 | 192 | 6.1 | 15.6 | 0.00 | 0.00 | 0.00 | 60 | 1008.6 |
| 20260505201904 | 70 | 195 | 7.0 | 15.6 | 0.00 | 0.00 | 0.00 | 60 | 1008.7 |
| 20260505201804 | 70 | 196 | 6.1 | 15.6 | 0.00 | 0.00 | 0.00 | 60 | 1008.7 |
| 20260505201704 | 70 | 198 | 6.1 | 15.6 | 0.00 | 0.00 | 0.00 | 60 | 1008.8 |
| 20260505201604 | 70 | 197 | 6.1 | 15.6 | 0.00 | 0.00 | 0.00 | 60 | 1008.7 |
| 20260505201504 | 70 | 198 | 6.1 | 15.6 | 0.00 | 0.00 | 0.00 | 60 | 1008.7 |
| 20260505201404 | 70 | 200 | 6.1 | 15.6 | 0.00 | 0.00 | 0.00 | 60 | 1008.8 |
| 20260505201304 | 70 | 200 | 6.1 | 20.0 | 0.00 | 0.00 | 0.00 | 60 | 1008.8 |
| 20260505201204 | 70 | 196 | 6.1 | 20.0 | 0.00 | 0.00 | 0.00 | 60 | 1008.7 |
| 20260505201104 | 70 | 200 | 7.0 | 20.0 | 0.00 | 0.00 | 0.00 | 60 | 1008.7 |
| 20260505201004 | 70 | 200 | 7.8 | 20.0 | 0.00 | 0.00 | 0.00 | 60 | 1008.7 |
| 20260505200304 | 70 | 194 | 7.8 | 18.2 | 0.00 | 0.00 | 0.00 | 60 | 1008.8 |
| 20260505200204 | 70 | 195 | 7.0 | 18.2 | 0.00 | 0.00 | 0.00 | 59 | 1008.8 |
| 20260505200110 | 70 | 217 | 10.4 | 20.0 | 0.00 | 0.00 | 0.00 | 59 | 1009.0 |
| 20260505200104 | 70 | 193 | 7.8 | 18.2 | 0.00 | 0.00 | 0.00 | 60 | 1008.7 |
| 20260505200004 | 70 | 196 | 7.0 | 18.2 | 0.00 | 0.00 | 0.00 | 60 | 1008.8 |
| 20260505195904 | 70 | 195 | 7.8 | 17.4 | 0.00 | 0.00 | 0.00 | 60 | 1008.8 |
| 20260505195804 | 70 | 195 | 7.8 | 18.2 | 0.00 | 0.00 | 0.00 | 60 | 1008.8 |
| 20260505195704 | 70 | 197 | 7.8 | 18.2 | 0.00 | 0.00 | 0.00 | 60 | 1008.8 |
| 20260505195605 | 70 | 195 | 7.8 | 18.2 | 0.00 | 0.00 | 0.00 | 60 | 1008.8 |
| 20260505195504 | 70 | 196 | 8.7 | 18.2 | 0.00 | 0.00 | 0.00 | 60 | 1008.9 |
| 20260505195404 | 70 | 199 | 8.7 | 18.2 | 0.00 | 0.00 | 0.00 | 60 | 1008.8 |
| 20260505195305 | 70 | 196 | 8.7 | 20.9 | 0.00 | 0.00 | 0.00 | 60 | 1009.0 |
| 20260505195204 | 70 | 196 | 9.6 | 20.9 | 0.00 | 0.00 | 0.00 | 60 | 1008.9 |
| 20260505195104 | 70 | 195 | 8.7 | 20.9 | 0.00 | 0.00 | 0.00 | 60 | 1009.0 |
| 20260505195004 | 70 | 192 | 8.7 | 20.9 | 0.00 | 0.00 | 0.00 | 60 | 1009.0 |
| 20260505194904 | 70 | 191 | 8.7 | 20.9 | 0.00 | 0.00 | 0.00 | 60 | 1009.1 |
| 20260505194804 | 70 | 191 | 8.7 | 20.9 | 0.00 | 0.00 | 0.00 | 60 | 1009.1 |
| 20260505194704 | 70 | 191 | 8.7 | 20.9 | 0.00 | 0.00 | 0.00 | 60 | 1009.1 |
| 20260505194604 | 70 | 190 | 10.4 | 20.9 | 0.00 | 0.00 | 0.00 | 60 | 1009.3 |
| 20260505194504 | 70 | 189 | 7.0 | 20.9 | 0.00 | 0.00 | 0.00 | 61 | 1009.0 |
| 20260505194404 | 70 | 187 | 7.0 | 20.9 | 0.00 | 0.00 | 0.00 | 61 | 1009.1 |
| 20260505194304 | 70 | 190 | 7.0 | 15.6 | 0.00 | 0.00 | 0.00 | 61 | 1009.1 |
| 20260505194204 | 70 | 191 | 6.1 | 15.6 | 0.00 | 0.00 | 0.00 | 60 | 1009.1 |
| 20260505194104 | 70 | 191 | 6.1 | 15.6 | 0.00 | 0.00 | 0.00 | 61 | 1009.1 |
| 20260505194004 | 70 | 191 | 6.1 | 15.6 | 0.00 | 0.00 | 0.00 | 60 | 1009.1 |
| 20260505193905 | 70 | 191 | 6.1 | 15.6 | 0.00 | 0.00 | 0.00 | 61 | 1009.1 |
| 20260505193804 | 70 | 190 | 6.1 | 15.6 | 0.00 | 0.00 | 0.00 | 61 | 1009.1 |
| 20260505193704 | 70 | 189 | 6.1 | 15.6 | 0.00 | 0.00 | 0.00 | 61 | 1009.0 |
| 20260505193604 | 70 | 192 | 6.1 | 15.6 | 0.00 | 0.00 | 0.00 | 61 | 1009.0 |
| 20260505193504 | 70 | 190 | 6.1 | 15.6 | 0.00 | 0.00 | 0.00 | 61 | 1009.2 |
| 20260505193404 | 70 | 191 | 6.1 | 15.6 | 0.00 | 0.00 | 0.00 | 61 | 1009.1 |
| 20260505193304 | 70 | 192 | 6.1 | 15.6 | 0.00 | 0.00 | 0.00 | 61 | 1009.2 |
| 20260505193205 | 70 | 191 | 6.1 | 15.6 | 0.00 | 0.00 | 0.00 | 61 | 1009.1 |
| 20260505193110 | 70 | 171 | 6.1 | 15.6 | 0.00 | 0.00 | 0.00 | 61 | 1009.4 |
| 20260505193104 | 71 | 192 | 5.2 | 15.6 | 0.00 | 0.00 | 0.00 | 61 | 1009.2 |
| 20260505193005 | 71 | 193 | 6.1 | 15.6 | 0.00 | 0.00 | 0.00 | 61 | 1009.2 |
| 20260505192905 | 71 | 192 | 6.1 | 15.6 | 0.00 | 0.00 | 0.00 | 61 | 1009.2 |
| 20260505192804 | 71 | 189 | 6.1 | 14.8 | 0.00 | 0.00 | 0.00 | 61 | 1009.3 |
| 20260505192704 | 71 | 193 | 6.1 | 14.8 | 0.00 | 0.00 | 0.00 | 61 | 1009.3 |
| 20260505192604 | 71 | 192 | 6.1 | 14.8 | 0.00 | 0.00 | 0.00 | 61 | 1009.3 |
| 20260505192504 | 71 | 195 | 6.1 | 14.8 | 0.00 | 0.00 | 0.00 | 61 | 1009.3 |
| 20260505192404 | 71 | 192 | 5.2 | 14.8 | 0.00 | 0.00 | 0.00 | 61 | 1009.3 |
| 20260505192306 | 71 | 191 | 5.2 | 14.8 | 0.00 | 0.00 | 0.00 | 61 | 1009.4 |
| 20260505192204 | 71 | 192 | 5.2 | 14.8 | 0.00 | 0.00 | 0.00 | 61 | 1009.4 |
| 20260505192104 | 71 | 193 | 5.2 | 14.8 | 0.00 | 0.00 | 0.00 | 61 | 1009.5 |
| 20260505192004 | 71 | 193 | 5.2 | 14.8 | 0.00 | 0.00 | 0.00 | 61 | 1009.4 |
| 20260505191904 | 71 | 195 | 5.2 | 14.8 | 0.00 | 0.00 | 0.00 | 60 | 1009.4 |
| 20260505191804 | 71 | 197 | 5.2 | 15.6 | 0.00 | 0.00 | 0.00 | 61 | 1009.4 |
| 20260505191704 | 71 | 192 | 5.2 | 15.6 | 0.00 | 0.00 | 0.00 | 61 | 1009.6 |
| 20260505191621 | 70 | 197 | 4.3 | 15.6 | 0.00 | 0.00 | 0.00 | 61 | 1009.8 |
| 20260505191605 | 71 | 189 | 5.2 | 15.6 | 0.00 | 0.00 | 0.00 | 61 | 1009.7 |
| 20260505191504 | 71 | 187 | 5.2 | 15.6 | 0.00 | 0.00 | 0.00 | 61 | 1009.6 |
| 20260505191404 | 71 | 188 | 6.1 | 15.6 | 0.00 | 0.00 | 0.00 | 61 | 1009.6 |
| 20260505191304 | 71 | 187 | 7.0 | 15.6 | 0.00 | 0.00 | 0.00 | 61 | 1009.6 |
| 20260505191204 | 71 | 185 | 7.0 | 15.6 | 0.00 | 0.00 | 0.00 | 61 | 1009.6 |
| 20260505191104 | 71 | 184 | 7.0 | 15.6 | 0.00 | 0.00 | 0.00 | 61 | 1009.6 |
| 20260505191004 | 71 | 183 | 7.0 | 15.6 | 0.00 | 0.00 | 0.00 | 61 | 1009.6 |
| 20260505190904 | 71 | 183 | 7.8 | 15.6 | 0.00 | 0.00 | 0.00 | 61 | 1009.7 |
| 20260505190803 | 71 | 184 | 7.0 | 15.6 | 0.00 | 0.00 | 0.00 | 61 | 1009.6 |
| 20260505190704 | 71 | 185 | 7.0 | 14.8 | 0.00 | 0.00 | 0.00 | 61 | 1009.6 |
| 20260505190604 | 71 | 184 | 7.0 | 14.8 | 0.00 | 0.00 | 0.00 | 61 | 1009.7 |
| 20260505190504 | 71 | 184 | 7.0 | 14.8 | 0.00 | 0.00 | 0.00 | 61 | 1009.7 |
| 20260505190404 | 71 | 184 | 7.0 | 14.8 | 0.00 | 0.00 | 0.00 | 61 | 1009.7 |
| 20260505190304 | 71 | 185 | 7.0 | 14.8 | 0.00 | 0.00 | 0.00 | 60 | 1009.7 |
| 20260505190204 | 71 | 186 | 7.8 | 14.8 | 0.00 | 0.00 | 0.00 | 60 | 1009.7 |
| 20260505190112 | 71 | 132 | 8.7 | 13.9 | 0.00 | 0.00 | 0.00 | 61 | 1009.9 |
| 20260505190104 | 71 | 186 | 7.8 | 14.8 | 0.00 | 0.00 | 0.00 | 60 | 1009.7 |
| 20260505190005 | 71 | 186 | 7.0 | 14.8 | 0.00 | 0.00 | 0.00 | 60 | 1009.7 |
| 20260505185305 | 71 | 182 | 6.1 | 17.4 | 0.00 | 0.00 | 0.00 | 61 | 1009.7 |
| 20260505185204 | 71 | 181 | 6.1 | 17.4 | 0.00 | 0.00 | 0.00 | 61 | 1009.8 |
| 20260505185104 | 71 | 184 | 6.1 | 17.4 | 0.00 | 0.00 | 0.00 | 61 | 1009.8 |
| 20260505185004 | 71 | 186 | 6.1 | 17.4 | 0.00 | 0.00 | 0.00 | 61 | 1009.7 |
| 20260505184904 | 71 | 187 | 6.1 | 13.9 | 0.00 | 0.00 | 0.00 | 61 | 1009.7 |
| 20260505184620 | 71 | 212 | 6.1 | 13.0 | 0.00 | 0.00 | 0.00 | 61 | 1009.9 |
| 20260505184304 | 71 | 186 | 7.8 | 19.1 | 0.00 | 0.00 | 0.00 | 61 | 1009.7 |
| 20260505184204 | 71 | 186 | 7.8 | 19.1 | 0.00 | 0.00 | 0.00 | 61 | 1009.8 |
| 20260505184104 | 71 | 184 | 7.8 | 19.1 | 0.00 | 0.00 | 0.00 | 61 | 1009.8 |
| 20260505184004 | 71 | 178 | 7.8 | 19.1 | 0.00 | 0.00 | 0.00 | 61 | 1009.8 |
| 20260505183904 | 71 | 178 | 7.8 | 19.1 | 0.00 | 0.00 | 0.00 | 61 | 1009.7 |
| 20260505183804 | 71 | 177 | 7.8 | 19.1 | 0.00 | 0.00 | 0.00 | 61 | 1009.8 |
| 20260505183704 | 71 | 178 | 7.0 | 19.1 | 0.00 | 0.00 | 0.00 | 61 | 1009.8 |
| 20260505183604 | 71 | 177 | 7.0 | 19.1 | 0.00 | 0.00 | 0.00 | 61 | 1009.8 |
| 20260505183504 | 71 | 174 | 7.0 | 15.6 | 0.00 | 0.00 | 0.00 | 61 | 1009.8 |
| 20260505183404 | 71 | 176 | 6.1 | 16.5 | 0.00 | 0.00 | 0.00 | 61 | 1009.9 |
| 20260505183304 | 71 | 176 | 6.1 | 16.5 | 0.00 | 0.00 | 0.00 | 61 | 1009.9 |
| 20260505183204 | 71 | 176 | 6.1 | 16.5 | 0.00 | 0.00 | 0.00 | 61 | 1009.9 |
| 20260505183107 | 71 | 172 | 6.1 | 16.5 | 0.00 | 0.00 | 0.00 | 61 | 1010.2 |
| 20260505183104 | 71 | 174 | 6.1 | 16.5 | 0.00 | 0.00 | 0.00 | 61 | 1009.8 |
| 20260505183004 | 71 | 179 | 6.1 | 16.5 | 0.00 | 0.00 | 0.00 | 61 | 1009.9 |
| 20260505182904 | 71 | 178 | 6.1 | 16.5 | 0.00 | 0.00 | 0.00 | 61 | 1009.9 |
| 20260505182804 | 71 | 179 | 5.2 | 16.5 | 0.00 | 0.00 | 0.00 | 62 | 1009.9 |
| 20260505182703 | 71 | 177 | 5.2 | 16.5 | 0.00 | 0.00 | 0.00 | 62 | 1009.9 |
| 20260505182604 | 71 | 177 | 5.2 | 16.5 | 0.00 | 0.00 | 0.00 | 61 | 1010.0 |
| 20260505182503 | 71 | 179 | 5.2 | 16.5 | 0.00 | 0.00 | 0.00 | 61 | 1010.0 |
| 20260505182404 | 71 | 182 | 5.2 | 15.6 | 0.00 | 0.00 | 0.00 | 61 | 1010.0 |
| 20260505182306 | 71 | 186 | 6.1 | 15.6 | 0.00 | 0.00 | 0.00 | 62 | 1010.0 |
| 20260505182204 | 71 | 186 | 6.1 | 15.6 | 0.00 | 0.00 | 0.00 | 62 | 1009.9 |
| 20260505182104 | 71 | 189 | 6.1 | 13.9 | 0.00 | 0.00 | 0.00 | 62 | 1010.0 |
| 20260505182004 | 71 | 188 | 5.2 | 13.9 | 0.00 | 0.00 | 0.00 | 62 | 1009.9 |
| 20260505181904 | 71 | 190 | 6.1 | 13.9 | 0.00 | 0.00 | 0.00 | 62 | 1010.0 |
| 20260505181804 | 71 | 192 | 7.0 | 13.9 | 0.00 | 0.00 | 0.00 | 62 | 1010.0 |
| 20260505181704 | 71 | 191 | 7.0 | 17.4 | 0.00 | 0.00 | 0.00 | 62 | 1010.1 |
| 20260505181619 | 71 | 194 | 4.3 | 20.0 | 0.00 | 0.00 | 0.00 | 61 | 1010.2 |
| 20260505181604 | 71 | 191 | 7.8 | 17.4 | 0.00 | 0.00 | 0.00 | 61 | 1009.9 |
| 20260505181504 | 71 | 189 | 7.0 | 17.4 | 0.00 | 0.00 | 0.00 | 61 | 1010.0 |
| 20260505181405 | 71 | 188 | 7.0 | 17.4 | 0.00 | 0.00 | 0.00 | 61 | 1010.0 |
| 20260505181304 | 71 | 188 | 7.8 | 17.4 | 0.00 | 0.00 | 0.00 | 62 | 1010.1 |
| 20260505181204 | 71 | 190 | 7.8 | 17.4 | 0.00 | 0.00 | 0.00 | 62 | 1010.0 |
| 20260505181103 | 71 | 190 | 7.8 | 17.4 | 0.00 | 0.00 | 0.00 | 61 | 1010.0 |
| 20260505181004 | 71 | 190 | 7.8 | 17.4 | 0.00 | 0.00 | 0.00 | 61 | 1010.1 |
| 20260505180903 | 71 | 188 | 7.8 | 17.4 | 0.00 | 0.00 | 0.00 | 61 | 1010.0 |
| 20260505180804 | 71 | 188 | 7.8 | 17.4 | 0.00 | 0.00 | 0.00 | 61 | 1010.1 |
| 20260505180704 | 71 | 188 | 7.8 | 16.5 | 0.00 | 0.00 | 0.00 | 61 | 1010.0 |
| 20260505180604 | 71 | 186 | 7.8 | 16.5 | 0.00 | 0.00 | 0.00 | 61 | 1010.1 |
| 20260505180504 | 71 | 188 | 8.7 | 16.5 | 0.00 | 0.00 | 0.00 | 61 | 1010.1 |
| 20260505180404 | 71 | 187 | 7.8 | 17.4 | 0.00 | 0.00 | 0.00 | 62 | 1010.0 |
| 20260505180304 | 71 | 186 | 7.8 | 17.4 | 0.00 | 0.00 | 0.00 | 62 | 1010.0 |
| 20260505180204 | 71 | 184 | 7.8 | 17.4 | 0.00 | 0.00 | 0.00 | 61 | 1010.0 |
| 20260505180105 | 71 | 184 | 6.1 | 17.4 | 0.00 | 0.00 | 0.00 | 61 | 1010.2 |
| 20260505180004 | 71 | 183 | 7.0 | 17.4 | 0.00 | 0.00 | 0.00 | 61 | 1010.0 |
| 20260505175904 | 71 | 181 | 7.8 | 17.4 | 0.00 | 0.00 | 0.00 | 61 | 1009.9 |
| 20260505175804 | 71 | 182 | 7.8 | 20.0 | 0.00 | 0.00 | 0.00 | 61 | 1010.0 |
| 20260505175704 | 71 | 183 | 7.8 | 20.0 | 0.00 | 0.00 | 0.00 | 61 | 1010.0 |
| 20260505175604 | 71 | 184 | 7.8 | 20.0 | 0.00 | 0.00 | 0.00 | 61 | 1009.9 |
| 20260505175505 | 71 | 183 | 7.8 | 20.0 | 0.00 | 0.00 | 0.00 | 61 | 1010.0 |
| 20260505175404 | 71 | 184 | 7.8 | 20.0 | 0.00 | 0.00 | 0.00 | 61 | 1010.0 |
| 20260505175305 | 71 | 184 | 7.8 | 20.0 | 0.00 | 0.00 | 0.00 | 60 | 1010.0 |
| 20260505175204 | 71 | 183 | 7.8 | 20.0 | 0.00 | 0.00 | 0.00 | 60 | 1010.0 |
| 20260505175104 | 71 | 182 | 7.8 | 20.0 | 0.00 | 0.00 | 0.00 | 60 | 1010.0 |
| 20260505175004 | 71 | 179 | 8.7 | 20.0 | 0.00 | 0.00 | 0.00 | 61 | 1010.1 |
| 20260505174904 | 71 | 181 | 7.8 | 20.0 | 0.00 | 0.00 | 0.00 | 61 | 1010.1 |
| 20260505174804 | 71 | 178 | 8.7 | 18.2 | 0.00 | 0.00 | 0.00 | 61 | 1010.0 |
| 20260505174704 | 71 | 178 | 7.8 | 18.2 | 0.00 | 0.00 | 0.00 | 61 | 1010.1 |
| 20260505174617 | 71 | 150 | 9.6 | 18.2 | 0.00 | 0.00 | 0.00 | 61 | 1010.4 |
| 20260505174604 | 71 | 178 | 7.8 | 18.2 | 0.00 | 0.00 | 0.00 | 61 | 1010.0 |
| 20260505174504 | 71 | 179 | 7.0 | 18.2 | 0.00 | 0.00 | 0.00 | 62 | 1010.1 |
| 20260505174404 | 71 | 177 | 7.0 | 18.2 | 0.00 | 0.00 | 0.00 | 62 | 1010.0 |
| 20260505174304 | 71 | 177 | 7.0 | 15.6 | 0.00 | 0.00 | 0.00 | 62 | 1010.0 |
| 20260505174204 | 71 | 179 | 7.0 | 15.6 | 0.00 | 0.00 | 0.00 | 62 | 1010.0 |
| 20260505174104 | 71 | 181 | 7.0 | 15.6 | 0.00 | 0.00 | 0.00 | 62 | 1010.0 |
| 20260505174004 | 71 | 182 | 6.1 | 15.6 | 0.00 | 0.00 | 0.00 | 62 | 1010.0 |
| 20260505173904 | 71 | 182 | 6.1 | 15.6 | 0.00 | 0.00 | 0.00 | 62 | 1010.1 |
| 20260505173804 | 71 | 183 | 6.1 | 14.8 | 0.00 | 0.00 | 0.00 | 62 | 1010.1 |
| 20260505173704 | 71 | 181 | 6.1 | 14.8 | 0.00 | 0.00 | 0.00 | 62 | 1010.1 |
| 20260505173604 | 71 | 182 | 6.1 | 14.8 | 0.00 | 0.00 | 0.00 | 62 | 1010.1 |
| 20260505173504 | 71 | 181 | 6.1 | 14.8 | 0.00 | 0.00 | 0.00 | 62 | 1010.1 |
| 20260505173404 | 71 | 179 | 6.1 | 14.8 | 0.00 | 0.00 | 0.00 | 63 | 1010.1 |
| 20260505173304 | 71 | 178 | 6.1 | 14.8 | 0.00 | 0.00 | 0.00 | 63 | 1010.1 |
| 20260505173204 | 71 | 176 | 6.1 | 13.9 | 0.00 | 0.00 | 0.00 | 63 | 1010.1 |
| 20260505173106 | 71 | 243 | 6.1 | 13.9 | 0.00 | 0.00 | 0.00 | 62 | 1010.4 |
| 20260505173004 | 71 | 178 | 7.0 | 13.9 | 0.00 | 0.00 | 0.00 | 63 | 1010.1 |
| 20260505172904 | 71 | 177 | 7.0 | 13.9 | 0.00 | 0.00 | 0.00 | 62 | 1010.1 |
| 20260505172804 | 71 | 175 | 7.0 | 13.0 | 0.00 | 0.00 | 0.00 | 63 | 1010.1 |
| 20260505172704 | 71 | 176 | 7.0 | 13.0 | 0.00 | 0.00 | 0.00 | 63 | 1010.0 |
| 20260505172604 | 71 | 175 | 7.0 | 13.0 | 0.00 | 0.00 | 0.00 | 63 | 1010.1 |
| 20260505172504 | 71 | 175 | 6.1 | 13.0 | 0.00 | 0.00 | 0.00 | 63 | 1010.0 |
| 20260505172404 | 71 | 175 | 6.1 | 13.0 | 0.00 | 0.00 | 0.00 | 63 | 1010.0 |
| 20260505172306 | 71 | 174 | 7.0 | 13.0 | 0.00 | 0.00 | 0.00 | 63 | 1010.0 |
| 20260505172205 | 71 | 175 | 7.0 | 17.4 | 0.00 | 0.00 | 0.00 | 63 | 1010.1 |
| 20260505172104 | 71 | 174 | 7.0 | 17.4 | 0.00 | 0.00 | 0.00 | 63 | 1010.1 |
| 20260505172004 | 71 | 175 | 6.1 | 17.4 | 0.00 | 0.00 | 0.00 | 63 | 1010.1 |
| 20260505171905 | 71 | 176 | 6.1 | 17.4 | 0.00 | 0.00 | 0.00 | 63 | 1010.0 |
| 20260505171804 | 70 | 181 | 7.0 | 17.4 | 0.00 | 0.00 | 0.00 | 63 | 1010.1 |
| 20260505171704 | 70 | 182 | 7.0 | 17.4 | 0.00 | 0.00 | 0.00 | 63 | 1010.2 |
| 20260505171616 | 70 | 181 | 4.3 | 17.4 | 0.00 | 0.00 | 0.00 | 63 | 1010.4 |
| 20260505171604 | 70 | 185 | 7.8 | 17.4 | 0.00 | 0.00 | 0.00 | 63 | 1010.1 |
| 20260505171504 | 70 | 187 | 7.8 | 18.2 | 0.00 | 0.00 | 0.00 | 63 | 1010.2 |
| 20260505171404 | 70 | 187 | 7.8 | 18.2 | 0.00 | 0.00 | 0.00 | 63 | 1010.2 |
| 20260505171304 | 70 | 191 | 7.8 | 18.2 | 0.00 | 0.00 | 0.00 | 63 | 1010.2 |
| 20260505171204 | 70 | 192 | 7.8 | 18.2 | 0.00 | 0.00 | 0.00 | 62 | 1010.2 |
| 20260505171104 | 70 | 193 | 7.8 | 18.2 | 0.00 | 0.00 | 0.00 | 62 | 1010.1 |
| 20260505171004 | 70 | 193 | 7.8 | 18.2 | 0.00 | 0.00 | 0.00 | 62 | 1010.2 |
| 20260505170904 | 70 | 193 | 7.8 | 18.2 | 0.00 | 0.00 | 0.00 | 62 | 1010.2 |
| 20260505170804 | 70 | 192 | 7.0 | 18.2 | 0.00 | 0.00 | 0.00 | 62 | 1010.2 |
| 20260505170704 | 70 | 193 | 7.0 | 18.2 | 0.00 | 0.00 | 0.00 | 62 | 1010.2 |
| 20260505170604 | 70 | 194 | 7.0 | 18.2 | 0.00 | 0.00 | 0.00 | 62 | 1010.2 |
| 20260505170504 | 70 | 190 | 7.0 | 13.9 | 0.00 | 0.00 | 0.00 | 63 | 1010.2 |
| 20260505170404 | 71 | 187 | 7.8 | 13.9 | 0.00 | 0.00 | 0.00 | 62 | 1010.2 |
| 20260505170304 | 71 | 185 | 7.8 | 17.4 | 0.00 | 0.00 | 0.00 | 63 | 1010.2 |
| 20260505170204 | 71 | 183 | 7.8 | 17.4 | 0.00 | 0.00 | 0.00 | 63 | 1010.2 |
| 20260505170105 | 70 | 197 | 5.2 | 17.4 | 0.00 | 0.00 | 0.00 | 63 | 1010.4 |
| 20260505170004 | 71 | 176 | 8.7 | 17.4 | 0.00 | 0.00 | 0.00 | 63 | 1010.3 |
| 20260505165904 | 71 | 176 | 8.7 | 17.4 | 0.00 | 0.00 | 0.00 | 63 | 1010.3 |
| 20260505165804 | 71 | 174 | 8.7 | 17.4 | 0.00 | 0.00 | 0.00 | 62 | 1010.2 |
| 20260505165704 | 71 | 172 | 8.7 | 17.4 | 0.00 | 0.00 | 0.00 | 63 | 1010.2 |
| 20260505165103 | 71 | 172 | 8.7 | 15.6 | 0.00 | 0.00 | 0.00 | 63 | 1010.3 |
| 20260505165004 | 71 | 172 | 8.7 | 15.6 | 0.00 | 0.00 | 0.00 | 64 | 1010.2 |
| 20260505164904 | 71 | 170 | 8.7 | 16.5 | 0.00 | 0.00 | 0.00 | 64 | 1010.2 |
| 20260505164804 | 71 | 169 | 8.7 | 16.5 | 0.00 | 0.00 | 0.00 | 64 | 1010.3 |
| 20260505164704 | 71 | 167 | 8.7 | 16.5 | 0.00 | 0.00 | 0.00 | 63 | 1010.2 |
| 20260505164618 | 70 | 171 | 7.0 | 16.5 | 0.00 | 0.00 | 0.00 | 63 | 1010.5 |
| 20260505164604 | 71 | 167 | 8.7 | 16.5 | 0.00 | 0.00 | 0.00 | 63 | 1010.2 |
| 20260505164504 | 71 | 165 | 8.7 | 16.5 | 0.00 | 0.00 | 0.00 | 63 | 1010.3 |
| 20260505164404 | 71 | 164 | 9.6 | 16.5 | 0.00 | 0.00 | 0.00 | 63 | 1010.3 |
| 20260505164303 | 71 | 164 | 9.6 | 16.5 | 0.00 | 0.00 | 0.00 | 63 | 1010.3 |
| 20260505164204 | 71 | 161 | 9.6 | 16.5 | 0.00 | 0.00 | 0.00 | 63 | 1010.3 |
| 20260505164104 | 71 | 159 | 8.7 | 16.5 | 0.00 | 0.00 | 0.00 | 64 | 1010.3 |
| 20260505164004 | 71 | 159 | 8.7 | 16.5 | 0.00 | 0.00 | 0.00 | 63 | 1010.3 |
| 20260505163904 | 71 | 160 | 9.6 | 15.6 | 0.00 | 0.00 | 0.00 | 63 | 1010.3 |
| 20260505163804 | 71 | 160 | 8.7 | 15.6 | 0.00 | 0.00 | 0.00 | 63 | 1010.3 |
| 20260505163704 | 71 | 161 | 8.7 | 15.6 | 0.00 | 0.00 | 0.00 | 64 | 1010.3 |
| 20260505163604 | 71 | 160 | 8.7 | 14.8 | 0.00 | 0.00 | 0.00 | 64 | 1010.3 |
| 20260505163504 | 71 | 162 | 8.7 | 14.8 | 0.00 | 0.00 | 0.00 | 64 | 1010.3 |
| 20260505163404 | 71 | 160 | 8.7 | 14.8 | 0.00 | 0.00 | 0.00 | 64 | 1010.3 |
| 20260505163304 | 71 | 162 | 7.8 | 14.8 | 0.00 | 0.00 | 0.00 | 64 | 1010.3 |
| 20260505163204 | 71 | 163 | 7.8 | 14.8 | 0.00 | 0.00 | 0.00 | 64 | 1010.2 |
| 20260505163105 | 70 | 131 | 9.6 | 14.8 | 0.00 | 0.00 | 0.00 | 64 | 1010.5 |
| 20260505163004 | 71 | 165 | 7.0 | 14.8 | 0.00 | 0.00 | 0.00 | 64 | 1010.3 |
| 20260505162904 | 70 | 166 | 7.0 | 14.8 | 0.00 | 0.00 | 0.00 | 64 | 1010.4 |
| 20260505162804 | 70 | 168 | 7.8 | 14.8 | 0.00 | 0.00 | 0.00 | 64 | 1010.4 |
| 20260505162704 | 70 | 168 | 7.8 | 14.8 | 0.00 | 0.00 | 0.00 | 64 | 1010.4 |